Time,TemperatureF,DewpointF,PressureIn,WindDirection,WindDirectionDegrees,WindSpeedMPH,WindSpeedGustMPH,Humidity,HourlyPrecipIn,Conditions,Clouds,dailyrainin,SoftwareType,DateUTC
2013-01-10 01:25:00,74.4,69.2,30.22,SE,142,5.0,6.0,84,0.00,,,0.00,Wunderground v.1.15,2013-01-10 06:25:00,
2013-01-10 01:27:00,74.4,69.2,30.22,ESE,113,2.0,6.0,84,0.00,,,0.00,Wunderground v.1.15,2013-01-10 06:27:00,
2013-01-10 01:29:00,74.4,69.2,30.22,ESE,112,0.0,6.0,84,0.00,,,0.00,Wunderground v.1.15,2013-01-10 06:29:00,
2013-01-10 01:30:00,74.4,69.2,30.22,ESE,104,6.0,6.0,84,0.00,,,0.00,Wunderground v.1.15,2013-01-10 06:30:00,
2013-01-10 01:33:00,74.4,69.2,30.22,SSE,149,8.0,8.0,84,0.00,,,0.00,Wunderground v.1.15,2013-01-10 06:33:00,
2013-01-10 01:34:00,74.4,69.2,30.22,SE,128,7.0,8.0,84,0.00,,,0.00,Wunderground v.1.15,2013-01-10 06:34:00,
2013-01-10 01:35:00,74.4,69.2,30.22,ESE,113,2.0,8.0,84,0.00,,,0.00,Wunderground v.1.15,2013-01-10 06:35:00,
2013-01-10 01:36:00,74.4,69.2,30.22,ESE,115,1.0,8.0,84,0.00,,,0.00,Wunderground v.1.15,2013-01-10 06:36:00,
2013-01-10 01:40:00,74.3,69.1,30.22,ESE,113,0.0,4.0,84,0.00,,,0.00,Wunderground v.1.15,2013-01-10 06:40:00,
2013-01-10 01:41:00,74.3,69.5,30.22,ESE,123,5.0,5.0,85,0.00,,,0.00,Wunderground v.1.15,2013-01-10 06:41:00,
2013-01-10 01:43:00,74.3,69.5,30.22,ESE,105,5.0,5.0,85,0.00,,,0.00,Wunderground v.1.15,2013-01-10 06:43:00,
2013-01-10 01:45:00,74.3,69.1,30.22,ESE,106,4.0,5.0,84,0.00,,,0.00,Wunderground v.1.15,2013-01-10 06:45:00,
2013-01-10 01:48:00,74.3,69.5,30.22,ESE,112,3.0,5.0,85,0.00,,,0.00,Wunderground v.1.15,2013-01-10 06:48:00,
2013-01-10 01:50:00,74.3,69.5,30.22,ESE,108,1.0,4.0,85,0.00,,,0.00,Wunderground v.1.15,2013-01-10 06:50:00,
2013-01-10 01:52:00,74.3,69.5,30.22,ESE,107,4.0,5.0,85,0.00,,,0.00,Wunderground v.1.15,2013-01-10 06:52:00,
2013-01-10 01:53:00,74.4,69.6,30.22,ESE,111,5.0,5.0,85,0.00,,,0.00,Wunderground v.1.15,2013-01-10 06:53:00,
2013-01-10 01:56:00,74.4,69.6,30.22,ESE,115,5.0,6.0,85,0.00,,,0.00,Wunderground v.1.15,2013-01-10 06:56:00,
2013-01-10 01:58:00,74.4,69.6,30.22,SE,127,5.0,6.0,85,0.00,,,0.00,Wunderground v.1.15,2013-01-10 06:58:00,
2013-01-10 01:59:00,74.4,69.6,30.22,ESE,114,5.0,6.0,85,0.00,,,0.00,Wunderground v.1.15,2013-01-10 06:59:00,
2013-01-10 02:01:00,74.4,69.2,30.22,ESE,102,5.0,7.0,84,0.00,,,0.00,Wunderground v.1.15,2013-01-10 07:01:00,
2013-01-10 02:04:00,74.4,69.2,30.21,ESE,107,2.0,7.0,84,0.00,,,0.00,Wunderground v.1.15,2013-01-10 07:04:00,
2013-01-10 02:05:00,74.4,69.2,30.21,ESE,115,3.0,7.0,84,0.00,,,0.00,Wunderground v.1.15,2013-01-10 07:05:00,
2013-01-10 02:06:00,74.4,69.2,30.21,ESE,119,5.0,7.0,84,0.00,,,0.00,Wunderground v.1.15,2013-01-10 07:06:00,
2013-01-10 02:09:00,74.4,69.2,30.22,ESE,116,4.0,7.0,84,0.00,,,0.00,Wunderground v.1.15,2013-01-10 07:09:00,
2013-01-10 02:10:00,74.4,69.2,30.21,East,98,0.0,4.0,84,0.00,,,0.00,Wunderground v.1.15,2013-01-10 07:10:00,
2013-01-10 02:11:00,74.4,69.2,30.22,East,99,0.0,4.0,84,0.00,,,0.00,Wunderground v.1.15,2013-01-10 07:11:00,
2013-01-10 02:12:00,74.4,69.2,30.22,East,99,0.0,4.0,84,0.00,,,0.00,Wunderground v.1.15,2013-01-10 07:12:00,
2013-01-10 02:14:00,74.4,69.2,30.22,SE,126,0.0,6.0,84,0.00,,,0.00,Wunderground v.1.15,2013-01-10 07:14:00,
2013-01-10 02:15:00,74.4,69.2,30.22,SE,132,4.0,7.0,84,0.00,,,0.00,Wunderground v.1.15,2013-01-10 07:15:00,
2013-01-10 02:16:00,74.4,69.2,30.22,SE,142,4.0,9.0,84,0.00,,,0.00,Wunderground v.1.15,2013-01-10 07:16:00,
2013-01-10 02:17:00,74.4,69.2,30.22,ESE,108,6.0,9.0,84,0.00,,,0.00,Wunderground v.1.15,2013-01-10 07:17:00,
2013-01-10 02:19:00,74.5,69.3,30.22,East,94,9.0,9.0,84,0.00,,,0.00,Wunderground v.1.15,2013-01-10 07:19:00,
2013-01-10 02:21:00,74.5,69.3,30.22,ESE,119,6.0,7.0,84,0.00,,,0.00,Wunderground v.1.15,2013-01-10 07:21:00,
2013-01-10 02:22:00,74.5,69.3,30.22,ESE,111,6.0,7.0,84,0.00,,,0.00,Wunderground v.1.15,2013-01-10 07:22:00,
2013-01-10 02:24:00,74.5,69.3,30.22,ESE,105,6.0,9.0,84,0.00,,,0.00,Wunderground v.1.15,2013-01-10 07:24:00,
2013-01-10 02:27:00,74.5,69.3,30.22,ESE,105,8.0,9.0,84,0.00,,,0.00,Wunderground v.1.15,2013-01-10 07:27:00,
2013-01-10 02:29:00,74.5,69.3,30.22,SE,138,5.0,9.0,84,0.00,,,0.00,Wunderground v.1.15,2013-01-10 07:29:00,
2013-01-10 02:30:00,74.5,69.3,30.22,SE,134,8.0,8.0,84,0.00,,,0.00,Wunderground v.1.15,2013-01-10 07:30:00,
2013-01-10 02:32:00,74.6,69.4,30.22,ESE,105,6.0,8.0,84,0.00,,,0.00,Wunderground v.1.15,2013-01-10 07:32:00,
2013-01-10 02:34:00,74.6,69.4,30.21,ESE,113,4.0,8.0,84,0.00,,,0.00,Wunderground v.1.15,2013-01-10 07:34:00,
2013-01-10 02:35:00,74.6,69.4,30.22,East,101,5.0,8.0,84,0.00,,,0.00,Wunderground v.1.15,2013-01-10 07:35:00,
2013-01-10 02:37:00,74.6,69.4,30.22,SE,131,4.0,8.0,84,0.00,,,0.00,Wunderground v.1.15,2013-01-10 07:37:00,
2013-01-10 02:38:00,74.6,69.4,30.22,SE,131,2.0,8.0,84,0.00,,,0.00,Wunderground v.1.15,2013-01-10 07:38:00,
2013-01-10 02:39:00,74.5,69.3,30.21,ESE,104,5.0,8.0,84,0.00,,,0.00,Wunderground v.1.15,2013-01-10 07:39:00,
2013-01-10 02:40:00,74.5,69.3,30.22,ESE,105,5.0,5.0,84,0.00,,,0.00,Wunderground v.1.15,2013-01-10 07:40:00,
2013-01-10 02:43:00,74.5,69.3,30.22,ESE,108,0.0,5.0,84,0.00,,,0.00,Wunderground v.1.15,2013-01-10 07:43:00,
2013-01-10 02:44:00,74.4,69.2,30.22,ESE,105,4.0,5.0,84,0.00,,,0.00,Wunderground v.1.15,2013-01-10 07:44:00,
2013-01-10 02:46:00,74.4,69.2,30.22,ESE,123,2.0,7.0,84,0.00,,,0.00,Wunderground v.1.15,2013-01-10 07:46:00,
2013-01-10 02:48:00,74.4,69.2,30.22,SE,135,5.0,7.0,84,0.00,,,0.00,Wunderground v.1.15,2013-01-10 07:48:00,
2013-01-10 02:49:00,74.3,69.1,30.22,SE,128,2.0,7.0,84,0.00,,,0.00,Wunderground v.1.15,2013-01-10 07:49:00,
2013-01-10 02:50:00,74.3,69.1,30.22,SE,130,0.0,7.0,84,0.00,,,0.00,Wunderground v.1.15,2013-01-10 07:50:00,
2013-01-10 02:51:00,74.3,69.1,30.22,SE,127,4.0,7.0,84,0.00,,,0.00,Wunderground v.1.15,2013-01-10 07:51:00,
2013-01-10 02:53:00,74.3,69.1,30.21,SE,138,7.0,7.0,84,0.00,,,0.00,Wunderground v.1.15,2013-01-10 07:53:00,
2013-01-10 02:55:00,74.2,69.1,30.22,ESE,123,2.0,7.0,84,0.00,,,0.00,Wunderground v.1.15,2013-01-10 07:55:00,
2013-01-10 02:56:00,74.2,69.1,30.21,SE,128,4.0,7.0,84,0.00,,,0.00,Wunderground v.1.15,2013-01-10 07:56:00,
2013-01-10 02:59:00,74.2,69.1,30.21,East,99,5.0,7.0,84,0.00,,,0.00,Wunderground v.1.15,2013-01-10 07:59:00,
2013-01-10 03:00:00,74.2,69.1,30.21,ESE,102,5.0,5.0,84,0.00,,,0.00,Wunderground v.1.15,2013-01-10 08:00:00,
2013-01-10 03:01:00,74.2,69.1,30.21,SE,128,0.0,5.0,84,0.00,,,0.00,Wunderground v.1.15,2013-01-10 08:01:00,
2013-01-10 03:02:00,74.2,69.1,30.21,SE,127,0.0,5.0,84,0.00,,,0.00,Wunderground v.1.15,2013-01-10 08:02:00,
2013-01-10 03:04:00,74.2,69.1,30.21,ESE,113,0.0,7.0,84,0.00,,,0.00,Wunderground v.1.15,2013-01-10 08:04:00,
2013-01-10 03:05:00,74.2,69.1,30.21,ESE,107,5.0,7.0,84,0.00,,,0.00,Wunderground v.1.15,2013-01-10 08:05:00,
2013-01-10 03:06:00,74.2,69.1,30.22,ESE,113,0.0,8.0,84,0.00,,,0.00,Wunderground v.1.15,2013-01-10 08:06:00,
2013-01-10 03:07:00,74.2,69.1,30.22,ESE,113,3.0,8.0,84,0.00,,,0.00,Wunderground v.1.15,2013-01-10 08:07:00,
2013-01-10 03:09:00,74.2,69.1,30.22,ESE,104,0.0,8.0,84,0.00,,,0.00,Wunderground v.1.15,2013-01-10 08:09:00,
2013-01-10 03:10:00,74.2,69.1,30.22,ESE,123,4.0,8.0,84,0.00,,,0.00,Wunderground v.1.15,2013-01-10 08:10:00,
2013-01-10 03:12:00,74.2,69.1,30.22,East,96,6.0,8.0,84,0.00,,,0.00,Wunderground v.1.15,2013-01-10 08:12:00,
2013-01-10 03:13:00,74.2,69.1,30.22,ESE,105,8.0,8.0,84,0.00,,,0.00,Wunderground v.1.15,2013-01-10 08:13:00,
2013-01-10 03:14:00,74.2,69.1,30.22,ESE,123,5.0,8.0,84,0.00,,,0.00,Wunderground v.1.15,2013-01-10 08:14:00,
2013-01-10 03:15:00,74.2,69.1,30.22,ESE,123,4.0,8.0,84,0.00,,,0.00,Wunderground v.1.15,2013-01-10 08:15:00,
2013-01-10 03:18:00,74.2,69.1,30.22,ESE,104,5.0,8.0,84,0.00,,,0.00,Wunderground v.1.15,2013-01-10 08:18:00,
2013-01-10 03:19:00,74.2,69.1,30.21,ESE,123,3.0,8.0,84,0.00,,,0.00,Wunderground v.1.15,2013-01-10 08:19:00,
2013-01-10 03:20:00,74.2,69.1,30.21,ESE,105,5.0,5.0,84,0.00,,,0.00,Wunderground v.1.15,2013-01-10 08:20:00,
2013-01-10 03:21:00,74.2,69.1,30.21,ESE,109,5.0,7.0,84,0.00,,,0.00,Wunderground v.1.15,2013-01-10 08:21:00,
2013-01-10 03:23:00,74.2,69.1,30.21,ESE,112,1.0,7.0,84,0.00,,,0.00,Wunderground v.1.15,2013-01-10 08:23:00,
2013-01-10 03:24:00,74.2,69.1,30.21,ESE,112,4.0,7.0,84,0.00,,,0.00,Wunderground v.1.15,2013-01-10 08:24:00,
2013-01-10 03:25:00,74.2,69.1,30.21,ESE,112,4.0,7.0,84,0.00,,,0.00,Wunderground v.1.15,2013-01-10 08:25:00,
2013-01-10 03:27:00,74.2,69.1,30.22,ESE,117,4.0,7.0,84,0.00,,,0.00,Wunderground v.1.15,2013-01-10 08:27:00,
2013-01-10 03:28:00,74.2,69.1,30.22,ESE,109,0.0,7.0,84,0.00,,,0.00,Wunderground v.1.15,2013-01-10 08:28:00,
2013-01-10 03:29:00,74.2,69.1,30.21,ESE,110,4.0,7.0,84,0.00,,,0.00,Wunderground v.1.15,2013-01-10 08:29:00,
2013-01-10 03:30:00,74.1,69.0,30.22,ESE,110,1.0,3.0,84,0.00,,,0.00,Wunderground v.1.15,2013-01-10 08:30:00,
2013-01-10 03:32:00,74.1,69.0,30.22,ESE,104,6.0,6.0,84,0.00,,,0.00,Wunderground v.1.15,2013-01-10 08:32:00,
2013-01-10 03:33:00,74.2,69.1,30.22,ESE,104,5.0,6.0,84,0.00,,,0.00,Wunderground v.1.15,2013-01-10 08:33:00,
2013-01-10 03:34:00,74.1,69.0,30.22,ESE,105,0.0,6.0,84,0.00,,,0.00,Wunderground v.1.15,2013-01-10 08:34:00,
2013-01-10 03:35:00,74.1,69.0,30.22,ESE,105,3.0,6.0,84,0.00,,,0.00,Wunderground v.1.15,2013-01-10 08:35:00,
2013-01-10 03:38:00,74.0,68.9,30.22,ESE,107,2.0,6.0,84,0.00,,,0.00,Wunderground v.1.15,2013-01-10 08:38:00,
2013-01-10 03:39:00,74.0,69.2,30.21,ESE,109,3.0,6.0,85,0.00,,,0.00,Wunderground v.1.15,2013-01-10 08:39:00,
2013-01-10 03:41:00,74.0,69.2,30.21,ESE,109,0.0,2.0,85,0.00,,,0.00,Wunderground v.1.15,2013-01-10 08:41:00,
2013-01-10 03:43:00,73.9,69.1,30.21,ESE,109,2.0,5.0,85,0.00,,,0.00,Wunderground v.1.15,2013-01-10 08:43:00,
2013-01-10 03:44:00,73.9,69.1,30.21,ESE,109,0.0,5.0,85,0.00,,,0.00,Wunderground v.1.15,2013-01-10 08:44:00,
2013-01-10 03:46:00,73.8,69.0,30.21,ESE,109,0.0,5.0,85,0.00,,,0.00,Wunderground v.1.15,2013-01-10 08:46:00,
2013-01-10 03:48:00,73.7,68.9,30.21,ESE,109,0.0,5.0,85,0.00,,,0.00,Wunderground v.1.15,2013-01-10 08:48:00,
2013-01-10 03:49:00,73.7,68.9,30.21,ESE,109,0.0,5.0,85,0.00,,,0.00,Wunderground v.1.15,2013-01-10 08:49:00,
2013-01-10 03:52:00,73.5,68.7,30.21,ESE,109,2.0,4.0,85,0.00,,,0.00,Wunderground v.1.15,2013-01-10 08:52:00,
2013-01-10 03:53:00,73.4,68.6,30.21,ESE,111,2.0,4.0,85,0.00,,,0.00,Wunderground v.1.15,2013-01-10 08:53:00,
2013-01-10 03:55:00,73.4,69.0,30.22,ESE,111,0.0,4.0,86,0.00,,,0.00,Wunderground v.1.15,2013-01-10 08:55:00,
2013-01-10 03:57:00,73.4,69.0,30.22,ESE,111,1.0,4.0,86,0.00,,,0.00,Wunderground v.1.15,2013-01-10 08:57:00,
2013-01-10 03:59:00,73.3,68.5,30.22,ESE,111,0.0,4.0,85,0.00,,,0.00,Wunderground v.1.15,2013-01-10 08:59:00,
2013-01-10 04:00:00,73.4,68.6,30.22,ESE,108,1.0,4.0,85,0.00,,,0.00,Wunderground v.1.15,2013-01-10 09:00:00,
2013-01-10 04:01:00,73.4,68.6,30.21,ESE,109,0.0,5.0,85,0.00,,,0.00,Wunderground v.1.15,2013-01-10 09:01:00,
2013-01-10 04:02:00,73.4,68.6,30.21,ESE,109,0.0,5.0,85,0.00,,,0.00,Wunderground v.1.15,2013-01-10 09:02:00,
2013-01-10 04:04:00,73.4,68.6,30.22,ESE,113,6.0,7.0,85,0.00,,,0.00,Wunderground v.1.15,2013-01-10 09:04:00,
2013-01-10 04:05:00,73.4,68.6,30.21,ESE,106,4.0,7.0,85,0.00,,,0.00,Wunderground v.1.15,2013-01-10 09:05:00,
2013-01-10 04:06:00,73.4,68.6,30.21,ESE,105,4.0,7.0,85,0.00,,,0.00,Wunderground v.1.15,2013-01-10 09:06:00,
2013-01-10 04:07:00,73.4,68.6,30.21,ESE,105,4.0,7.0,85,0.00,,,0.00,Wunderground v.1.15,2013-01-10 09:07:00,
2013-01-10 04:09:00,73.5,68.7,30.21,ESE,105,0.0,7.0,85,0.00,,,0.00,Wunderground v.1.15,2013-01-10 09:09:00,
2013-01-10 04:10:00,73.5,68.7,30.22,ESE,105,1.0,3.0,85,0.00,,,0.00,Wunderground v.1.15,2013-01-10 09:10:00,
2013-01-10 04:12:00,73.5,68.7,30.22,SE,134,0.0,6.0,85,0.00,,,0.00,Wunderground v.1.15,2013-01-10 09:12:00,
2013-01-10 04:14:00,73.4,68.6,30.22,SE,134,0.0,6.0,85,0.00,,,0.00,Wunderground v.1.15,2013-01-10 09:14:00,
2013-01-10 04:16:00,73.4,68.6,30.22,SE,132,0.0,6.0,85,0.00,,,0.00,Wunderground v.1.15,2013-01-10 09:16:00,
2013-01-10 04:18:00,73.3,68.5,30.22,SE,129,0.0,6.0,85,0.00,,,0.00,Wunderground v.1.15,2013-01-10 09:18:00,
2013-01-10 04:19:00,73.3,68.5,30.22,ESE,117,3.0,6.0,85,0.00,,,0.00,Wunderground v.1.15,2013-01-10 09:19:00,
2013-01-10 04:20:00,73.2,68.4,30.22,ESE,115,0.0,1.0,85,0.00,,,0.00,Wunderground v.1.15,2013-01-10 09:20:00,
2013-01-10 04:22:00,73.1,68.3,30.22,ESE,115,0.0,2.0,85,0.00,,,0.00,Wunderground v.1.15,2013-01-10 09:22:00,
2013-01-10 04:23:00,73.1,68.3,30.21,ESE,115,0.0,2.0,85,0.00,,,0.00,Wunderground v.1.15,2013-01-10 09:23:00,
2013-01-10 04:24:00,73.1,68.3,30.21,ESE,115,0.0,2.0,85,0.00,,,0.00,Wunderground v.1.15,2013-01-10 09:24:00,
2013-01-10 04:25:00,73.0,68.2,30.21,ESE,115,0.0,2.0,85,0.00,,,0.00,Wunderground v.1.15,2013-01-10 09:25:00,
2013-01-10 04:27:00,72.9,68.1,30.21,ESE,115,0.0,2.0,85,0.00,,,0.00,Wunderground v.1.15,2013-01-10 09:27:00,
2013-01-10 04:29:00,72.8,68.4,30.21,ESE,115,0.0,2.0,86,0.00,,,0.00,Wunderground v.1.15,2013-01-10 09:29:00,
2013-01-10 04:30:00,72.7,68.3,30.21,ESE,115,2.0,2.0,86,0.00,,,0.00,Wunderground v.1.15,2013-01-10 09:30:00,
2013-01-10 04:33:00,72.6,68.2,30.21,ESE,115,1.0,2.0,86,0.00,,,0.00,Wunderground v.1.15,2013-01-10 09:33:00,
2013-01-10 04:34:00,72.5,68.1,30.21,ESE,115,2.0,3.0,86,0.00,,,0.00,Wunderground v.1.15,2013-01-10 09:34:00,
2013-01-10 04:35:00,72.5,68.1,30.21,ESE,115,0.0,3.0,86,0.00,,,0.00,Wunderground v.1.15,2013-01-10 09:35:00,
2013-01-10 04:37:00,72.6,68.5,30.22,ESE,115,0.0,3.0,87,0.00,,,0.00,Wunderground v.1.15,2013-01-10 09:37:00,
2013-01-10 04:38:00,72.5,68.4,30.22,ESE,115,0.0,3.0,87,0.00,,,0.00,Wunderground v.1.15,2013-01-10 09:38:00,
2013-01-10 04:40:00,72.5,68.4,30.21,ESE,115,0.0,1.0,87,0.00,,,0.00,Wunderground v.1.15,2013-01-10 09:40:00,
2013-01-10 04:42:00,72.5,68.1,30.21,ESE,115,0.0,1.0,86,0.00,,,0.00,Wunderground v.1.15,2013-01-10 09:42:00,
2013-01-10 04:43:00,72.5,68.1,30.21,ESE,115,0.0,1.0,86,0.00,,,0.00,Wunderground v.1.15,2013-01-10 09:43:00,
2013-01-10 04:45:00,72.5,68.1,30.21,ESE,115,0.0,2.0,86,0.00,,,0.00,Wunderground v.1.15,2013-01-10 09:45:00,
2013-01-10 04:48:00,72.4,68.0,30.21,ESE,115,1.0,2.0,86,0.00,,,0.00,Wunderground v.1.15,2013-01-10 09:48:00,
2013-01-10 04:49:00,72.4,68.0,30.21,ESE,115,0.0,2.0,86,0.00,,,0.00,Wunderground v.1.15,2013-01-10 09:49:00,
2013-01-10 04:51:00,72.3,67.9,30.21,ESE,115,0.0,0.0,86,0.00,,,0.00,Wunderground v.1.15,2013-01-10 09:51:00,
2013-01-10 04:53:00,72.2,67.8,30.21,ESE,115,0.0,0.0,86,0.00,,,0.00,Wunderground v.1.15,2013-01-10 09:53:00,
2013-01-10 04:54:00,72.2,67.8,30.21,ESE,115,0.0,0.0,86,0.00,,,0.00,Wunderground v.1.15,2013-01-10 09:54:00,
2013-01-10 04:56:00,72.1,67.7,30.21,ESE,115,0.0,0.0,86,0.00,,,0.00,Wunderground v.1.15,2013-01-10 09:56:00,
2013-01-10 04:58:00,72.0,67.6,30.21,ESE,115,0.0,0.0,86,0.00,,,0.00,Wunderground v.1.15,2013-01-10 09:58:00,
2013-01-10 04:59:00,72.0,67.9,30.21,ESE,115,0.0,0.0,87,0.00,,,0.00,Wunderground v.1.15,2013-01-10 09:59:00,
2013-01-10 05:01:00,71.9,67.8,30.21,ESE,115,0.0,0.0,87,0.00,,,0.00,Wunderground v.1.15,2013-01-10 10:01:00,
2013-01-10 05:05:00,71.8,67.7,30.21,ESE,115,0.0,0.0,87,0.00,,,0.00,Wunderground v.1.15,2013-01-10 10:05:00,
2013-01-10 05:06:00,71.8,67.7,30.21,ESE,115,0.0,0.0,87,0.00,,,0.00,Wunderground v.1.15,2013-01-10 10:06:00,
2013-01-10 05:07:00,71.8,67.7,30.21,ESE,115,0.0,0.0,87,0.00,,,0.00,Wunderground v.1.15,2013-01-10 10:07:00,
2013-01-10 05:10:00,71.7,67.6,30.21,ESE,115,0.0,0.0,87,0.00,,,0.00,Wunderground v.1.15,2013-01-10 10:10:00,
2013-01-10 05:12:00,71.7,67.6,30.20,ESE,115,0.0,0.0,87,0.00,,,0.00,Wunderground v.1.15,2013-01-10 10:12:00,
2013-01-10 05:15:00,71.7,67.6,30.21,ESE,115,0.0,0.0,87,0.00,,,0.00,Wunderground v.1.15,2013-01-10 10:15:00,
2013-01-10 05:16:00,71.7,67.6,30.21,ESE,115,0.0,0.0,87,0.00,,,0.00,Wunderground v.1.15,2013-01-10 10:16:00,
2013-01-10 05:17:00,71.7,67.6,30.21,ESE,115,0.0,0.0,87,0.00,,,0.00,Wunderground v.1.15,2013-01-10 10:17:00,
2013-01-10 05:21:00,71.7,67.6,30.21,ESE,115,0.0,0.0,87,0.00,,,0.00,Wunderground v.1.15,2013-01-10 10:21:00,
2013-01-10 05:22:00,71.7,67.6,30.21,ESE,115,0.0,0.0,87,0.00,,,0.00,Wunderground v.1.15,2013-01-10 10:22:00,
2013-01-10 05:23:00,71.7,67.6,30.21,ESE,115,0.0,0.0,87,0.00,,,0.00,Wunderground v.1.15,2013-01-10 10:23:00,
2013-01-10 05:26:00,71.7,67.6,30.21,ESE,115,0.0,0.0,87,0.00,,,0.00,Wunderground v.1.15,2013-01-10 10:26:00,
2013-01-10 05:28:00,71.7,67.6,30.21,ESE,115,0.0,0.0,87,0.00,,,0.00,Wunderground v.1.15,2013-01-10 10:28:00,
2013-01-10 05:29:00,71.6,67.5,30.20,ESE,115,0.0,0.0,87,0.00,,,0.00,Wunderground v.1.15,2013-01-10 10:29:00,
2013-01-10 05:31:00,71.5,67.1,30.21,ESE,115,0.0,0.0,86,0.00,,,0.00,Wunderground v.1.15,2013-01-10 10:31:00,
2013-01-10 05:32:00,71.6,67.5,30.21,ESE,115,0.0,0.0,87,0.00,,,0.00,Wunderground v.1.15,2013-01-10 10:32:00,
2013-01-10 05:33:00,71.5,67.4,30.21,ESE,115,0.0,0.0,87,0.00,,,0.00,Wunderground v.1.15,2013-01-10 10:33:00,
2013-01-10 05:34:00,71.5,67.4,30.21,ESE,115,0.0,0.0,87,0.00,,,0.00,Wunderground v.1.15,2013-01-10 10:34:00,
2013-01-10 05:37:00,71.5,67.4,30.21,ESE,115,0.0,0.0,87,0.00,,,0.00,Wunderground v.1.15,2013-01-10 10:37:00,
2013-01-10 05:38:00,71.5,67.4,30.21,ESE,115,0.0,0.0,87,0.00,,,0.00,Wunderground v.1.15,2013-01-10 10:38:00,
2013-01-10 05:39:00,71.5,67.4,30.21,ESE,115,0.0,0.0,87,0.00,,,0.00,Wunderground v.1.15,2013-01-10 10:39:00,
2013-01-10 05:42:00,71.5,67.4,30.21,ESE,115,0.0,0.0,87,0.00,,,0.00,Wunderground v.1.15,2013-01-10 10:42:00,
2013-01-10 05:43:00,71.5,67.4,30.21,ESE,115,0.0,0.0,87,0.00,,,0.00,Wunderground v.1.15,2013-01-10 10:43:00,
2013-01-10 05:45:00,71.5,67.4,30.21,ESE,115,0.0,0.0,87,0.00,,,0.00,Wunderground v.1.15,2013-01-10 10:45:00,
2013-01-10 05:48:00,71.4,67.3,30.21,ESE,115,0.0,0.0,87,0.00,,,0.00,Wunderground v.1.15,2013-01-10 10:48:00,
2013-01-10 05:50:00,71.4,67.3,30.21,ESE,115,0.0,0.0,87,0.00,,,0.00,Wunderground v.1.15,2013-01-10 10:50:00,
2013-01-10 05:51:00,71.4,67.3,30.21,ESE,115,0.0,0.0,87,0.00,,,0.00,Wunderground v.1.15,2013-01-10 10:51:00,
2013-01-10 05:53:00,71.4,67.3,30.21,ESE,115,0.0,0.0,87,0.00,,,0.00,Wunderground v.1.15,2013-01-10 10:53:00,
2013-01-10 05:54:00,71.4,67.3,30.21,ESE,115,0.0,0.0,87,0.00,,,0.00,Wunderground v.1.15,2013-01-10 10:54:00,
2013-01-10 05:56:00,71.3,67.2,30.21,ESE,115,0.0,0.0,87,0.00,,,0.00,Wunderground v.1.15,2013-01-10 10:56:00,
2013-01-10 05:59:00,71.3,67.2,30.21,ESE,115,0.0,0.0,87,0.00,,,0.00,Wunderground v.1.15,2013-01-10 10:59:00,
2013-01-10 06:00:00,71.3,67.2,30.21,ESE,115,0.0,0.0,87,0.00,,,0.00,Wunderground v.1.15,2013-01-10 11:00:00,
2013-01-10 06:02:00,71.2,67.1,30.21,ESE,115,0.0,0.0,87,0.00,,,0.00,Wunderground v.1.15,2013-01-10 11:02:00,
2013-01-10 06:04:00,71.1,67.0,30.21,ESE,115,0.0,0.0,87,0.00,,,0.00,Wunderground v.1.15,2013-01-10 11:04:00,
2013-01-10 06:05:00,71.1,67.0,30.21,ESE,115,0.0,0.0,87,0.00,,,0.00,Wunderground v.1.15,2013-01-10 11:05:00,
2013-01-10 06:07:00,71.0,66.9,30.21,ESE,115,0.0,0.0,87,0.00,,,0.00,Wunderground v.1.15,2013-01-10 11:07:00,
2013-01-10 06:08:00,70.9,66.8,30.21,ESE,115,0.0,0.0,87,0.00,,,0.00,Wunderground v.1.15,2013-01-10 11:08:00,
2013-01-10 06:09:00,70.8,66.7,30.21,ESE,115,0.0,0.0,87,0.00,,,0.00,Wunderground v.1.15,2013-01-10 11:09:00,
2013-01-10 06:10:00,70.8,66.7,30.21,ESE,115,0.0,0.0,87,0.00,,,0.00,Wunderground v.1.15,2013-01-10 11:10:00,
2013-01-10 06:12:00,70.8,67.1,30.21,ESE,115,0.0,0.0,88,0.00,,,0.00,Wunderground v.1.15,2013-01-10 11:12:00,
2013-01-10 06:13:00,70.8,67.1,30.21,ESE,115,0.0,0.0,88,0.00,,,0.00,Wunderground v.1.15,2013-01-10 11:13:00,
2013-01-10 06:15:00,70.7,67.0,30.21,ESE,115,0.0,0.0,88,0.00,,,0.00,Wunderground v.1.15,2013-01-10 11:15:00,
2013-01-10 06:16:00,70.6,66.9,30.21,ESE,115,0.0,0.0,88,0.00,,,0.00,Wunderground v.1.15,2013-01-10 11:16:00,
2013-01-10 06:17:00,70.6,66.9,30.21,ESE,115,0.0,0.0,88,0.00,,,0.00,Wunderground v.1.15,2013-01-10 11:17:00,
2013-01-10 06:18:00,70.5,66.8,30.21,ESE,115,0.0,0.0,88,0.00,,,0.00,Wunderground v.1.15,2013-01-10 11:18:00,
2013-01-10 06:20:00,70.5,66.8,30.21,ESE,115,0.0,0.0,88,0.00,,,0.00,Wunderground v.1.15,2013-01-10 11:20:00,
2013-01-10 06:22:00,70.4,66.7,30.21,ESE,115,0.0,0.0,88,0.00,,,0.00,Wunderground v.1.15,2013-01-10 11:22:00,
2013-01-10 06:23:00,70.3,66.6,30.21,ESE,115,0.0,0.0,88,0.00,,,0.00,Wunderground v.1.15,2013-01-10 11:23:00,
2013-01-10 06:24:00,70.2,66.5,30.21,ESE,115,0.0,0.0,88,0.00,,,0.00,Wunderground v.1.15,2013-01-10 11:24:00,
2013-01-10 06:26:00,70.0,66.3,30.22,ESE,115,0.0,0.0,88,0.00,,,0.00,Wunderground v.1.15,2013-01-10 11:26:00,
2013-01-10 06:27:00,69.8,66.1,30.22,ESE,115,0.0,0.0,88,0.00,,,0.00,Wunderground v.1.15,2013-01-10 11:27:00,
2013-01-10 06:28:00,69.7,66.0,30.22,ESE,115,0.0,0.0,88,0.00,,,0.00,Wunderground v.1.15,2013-01-10 11:28:00,
2013-01-10 06:29:00,69.6,65.9,30.22,ESE,115,0.0,0.0,88,0.00,,,0.00,Wunderground v.1.15,2013-01-10 11:29:00,
2013-01-10 06:31:00,69.3,65.6,30.22,ESE,115,0.0,0.0,88,0.00,,,0.00,Wunderground v.1.15,2013-01-10 11:31:00,
2013-01-10 06:32:00,69.1,65.7,30.22,ESE,115,0.0,0.0,89,0.00,,,0.00,Wunderground v.1.15,2013-01-10 11:32:00,
2013-01-10 06:33:00,69.0,65.6,30.22,ESE,115,0.0,0.0,89,0.00,,,0.00,Wunderground v.1.15,2013-01-10 11:33:00,
2013-01-10 06:34:00,68.9,65.5,30.22,ESE,115,0.0,0.0,89,0.00,,,0.00,Wunderground v.1.15,2013-01-10 11:34:00,
2013-01-10 06:37:00,68.7,65.6,30.22,ESE,115,0.0,0.0,90,0.00,,,0.00,Wunderground v.1.15,2013-01-10 11:37:00,
2013-01-10 06:38:00,68.6,65.5,30.22,ESE,115,0.0,0.0,90,0.00,,,0.00,Wunderground v.1.15,2013-01-10 11:38:00,
2013-01-10 06:39:00,68.5,65.4,30.22,ESE,115,0.0,0.0,90,0.00,,,0.00,Wunderground v.1.15,2013-01-10 11:39:00,
2013-01-10 06:43:00,68.2,65.2,30.22,ESE,115,0.0,0.0,90,0.00,,,0.00,Wunderground v.1.15,2013-01-10 11:43:00,
2013-01-10 06:44:00,68.1,65.4,30.22,ESE,115,0.0,0.0,91,0.00,,,0.00,Wunderground v.1.15,2013-01-10 11:44:00,
2013-01-10 06:48:00,67.9,65.2,30.22,ESE,115,0.0,0.0,91,0.00,,,0.00,Wunderground v.1.15,2013-01-10 11:48:00,
2013-01-10 06:49:00,67.9,65.5,30.22,ESE,115,0.0,0.0,92,0.00,,,0.00,Wunderground v.1.15,2013-01-10 11:49:00,
2013-01-10 06:50:00,67.8,65.4,30.22,ESE,115,0.0,0.0,92,0.00,,,0.00,Wunderground v.1.15,2013-01-10 11:50:00,
2013-01-10 06:53:00,67.8,65.4,30.23,ESE,115,0.0,0.0,92,0.00,,,0.00,Wunderground v.1.15,2013-01-10 11:53:00,
2013-01-10 06:54:00,67.8,65.4,30.23,ESE,115,0.0,0.0,92,0.00,,,0.00,Wunderground v.1.15,2013-01-10 11:54:00,
2013-01-10 06:55:00,67.8,65.4,30.23,ESE,115,0.0,0.0,92,0.00,,,0.00,Wunderground v.1.15,2013-01-10 11:55:00,
2013-01-10 06:58:00,67.9,65.8,30.23,ESE,115,0.0,0.0,93,0.00,,,0.00,Wunderground v.1.15,2013-01-10 11:58:00,
2013-01-10 06:59:00,67.8,65.7,30.23,ESE,115,0.0,0.0,93,0.00,,,0.00,Wunderground v.1.15,2013-01-10 11:59:00,
2013-01-10 07:00:00,67.9,65.8,30.23,ESE,115,0.0,0.0,93,0.00,,,0.00,Wunderground v.1.15,2013-01-10 12:00:00,
2013-01-10 07:01:00,67.9,65.8,30.23,ESE,115,0.0,0.0,93,0.00,,,0.00,Wunderground v.1.15,2013-01-10 12:01:00,
2013-01-10 07:04:00,68.0,65.9,30.23,ESE,115,0.0,0.0,93,0.00,,,0.00,Wunderground v.1.15,2013-01-10 12:04:00,
2013-01-10 07:05:00,68.0,65.9,30.23,ESE,115,0.0,0.0,93,0.00,,,0.00,Wunderground v.1.15,2013-01-10 12:05:00,
2013-01-10 07:07:00,68.0,65.9,30.23,ESE,115,0.0,0.0,93,0.00,,,0.00,Wunderground v.1.15,2013-01-10 12:07:00,
2013-01-10 07:09:00,67.8,65.7,30.23,ESE,115,0.0,0.0,93,0.00,,,0.00,Wunderground v.1.15,2013-01-10 12:09:00,
2013-01-10 07:12:00,67.7,65.6,30.23,ESE,115,0.0,0.0,93,0.00,,,0.00,Wunderground v.1.15,2013-01-10 12:12:00,
2013-01-10 07:13:00,67.7,65.6,30.23,ESE,115,0.0,0.0,93,0.00,,,0.00,Wunderground v.1.15,2013-01-10 12:13:00,
2013-01-10 07:14:00,67.7,65.6,30.23,ESE,115,0.0,0.0,93,0.00,,,0.00,Wunderground v.1.15,2013-01-10 12:14:00,
2013-01-10 07:18:00,67.7,65.6,30.23,ESE,115,0.0,0.0,93,0.00,,,0.00,Wunderground v.1.15,2013-01-10 12:18:00,
2013-01-10 07:20:00,67.7,65.6,30.23,ESE,115,0.0,0.0,93,0.00,,,0.00,Wunderground v.1.15,2013-01-10 12:20:00,
2013-01-10 07:23:00,67.9,66.1,30.23,ESE,115,0.0,0.0,94,0.00,,,0.00,Wunderground v.1.15,2013-01-10 12:23:00,
2013-01-10 07:24:00,67.9,66.1,30.23,ESE,115,0.0,0.0,94,0.00,,,0.00,Wunderground v.1.15,2013-01-10 12:24:00,
2013-01-10 07:25:00,67.9,66.1,30.23,ESE,115,0.0,0.0,94,0.00,,,0.00,Wunderground v.1.15,2013-01-10 12:25:00,
2013-01-10 07:28:00,68.1,66.3,30.23,ESE,115,0.0,0.0,94,0.00,,,0.00,Wunderground v.1.15,2013-01-10 12:28:00,
2013-01-10 07:29:00,68.2,66.4,30.24,ESE,115,0.0,0.0,94,0.00,,,0.00,Wunderground v.1.15,2013-01-10 12:29:00,
2013-01-10 07:31:00,68.5,66.7,30.24,ESE,115,0.0,0.0,94,0.00,,,0.00,Wunderground v.1.15,2013-01-10 12:31:00,
2013-01-10 07:32:00,68.6,66.8,30.24,ESE,115,0.0,0.0,94,0.00,,,0.00,Wunderground v.1.15,2013-01-10 12:32:00,
2013-01-10 07:33:00,68.7,66.9,30.24,ESE,115,0.0,0.0,94,0.00,,,0.00,Wunderground v.1.15,2013-01-10 12:33:00,
2013-01-10 07:34:00,68.7,66.9,30.24,ESE,115,0.0,0.0,94,0.00,,,0.00,Wunderground v.1.15,2013-01-10 12:34:00,
2013-01-10 07:37:00,68.9,67.1,30.24,ESE,115,0.0,0.0,94,0.00,,,0.00,Wunderground v.1.15,2013-01-10 12:37:00,
2013-01-10 07:38:00,69.1,67.0,30.24,ESE,115,0.0,0.0,93,0.00,,,0.00,Wunderground v.1.15,2013-01-10 12:38:00,
2013-01-10 07:40:00,69.4,67.3,30.24,ESE,115,0.0,0.0,93,0.00,,,0.00,Wunderground v.1.15,2013-01-10 12:40:00,
2013-01-10 07:42:00,69.7,67.3,30.24,ESE,115,0.0,0.0,92,0.00,,,0.00,Wunderground v.1.15,2013-01-10 12:42:00,
2013-01-10 07:44:00,69.9,67.5,30.24,ESE,115,0.0,0.0,92,0.00,,,0.00,Wunderground v.1.15,2013-01-10 12:44:00,
2013-01-10 07:45:00,70.2,67.4,30.24,ESE,115,0.0,0.0,91,0.00,,,0.00,Wunderground v.1.15,2013-01-10 12:45:00,
2013-01-10 07:48:00,70.6,67.5,30.24,ESE,118,0.0,0.0,90,0.00,,,0.00,Wunderground v.1.15,2013-01-10 12:48:00,
2013-01-10 07:49:00,70.7,67.6,30.24,ESE,121,0.0,0.0,90,0.00,,,0.00,Wunderground v.1.15,2013-01-10 12:49:00,
2013-01-10 07:51:00,71.2,67.8,30.24,ESE,120,0.0,0.0,89,0.00,,,0.00,Wunderground v.1.15,2013-01-10 12:51:00,
2013-01-10 07:53:00,71.5,67.8,30.24,ESE,120,0.0,0.0,88,0.00,,,0.00,Wunderground v.1.15,2013-01-10 12:53:00,
2013-01-10 07:55:00,71.6,67.5,30.24,ESE,120,0.0,0.0,87,0.00,,,0.00,Wunderground v.1.15,2013-01-10 12:55:00,
2013-01-10 07:56:00,71.7,67.6,30.24,ESE,117,0.0,0.0,87,0.00,,,0.00,Wunderground v.1.15,2013-01-10 12:56:00,
2013-01-10 07:59:00,72.0,67.6,30.24,ESE,114,0.0,0.0,86,0.00,,,0.00,Wunderground v.1.15,2013-01-10 12:59:00,
2013-01-10 08:00:00,72.1,67.7,30.24,ESE,114,0.0,0.0,86,0.00,,,0.00,Wunderground v.1.15,2013-01-10 13:00:00,
2013-01-10 08:01:00,72.3,67.9,30.24,ESE,114,0.0,0.0,86,0.00,,,0.00,Wunderground v.1.15,2013-01-10 13:01:00,
2013-01-10 08:04:00,72.5,68.1,30.25,ESE,114,0.0,0.0,86,0.00,,,0.00,Wunderground v.1.15,2013-01-10 13:04:00,
2013-01-10 08:05:00,72.6,68.2,30.24,ESE,114,0.0,0.0,86,0.00,,,0.00,Wunderground v.1.15,2013-01-10 13:05:00,
2013-01-10 08:06:00,72.8,68.0,30.25,ESE,114,0.0,0.0,85,0.00,,,0.00,Wunderground v.1.15,2013-01-10 13:06:00,
2013-01-10 08:09:00,72.9,67.8,30.25,ESE,114,0.0,0.0,84,0.00,,,0.00,Wunderground v.1.15,2013-01-10 13:09:00,
2013-01-10 08:11:00,73.1,68.0,30.25,ESE,114,0.0,0.0,84,0.00,,,0.00,Wunderground v.1.15,2013-01-10 13:11:00,
2013-01-10 08:12:00,73.2,68.1,30.24,ESE,114,0.0,0.0,84,0.00,,,0.00,Wunderground v.1.15,2013-01-10 13:12:00,
2013-01-10 08:14:00,73.4,68.3,30.25,ESE,113,0.0,0.0,84,0.00,,,0.00,Wunderground v.1.15,2013-01-10 13:14:00,
2013-01-10 08:16:00,73.5,68.0,30.25,ESE,113,0.0,0.0,83,0.00,,,0.00,Wunderground v.1.15,2013-01-10 13:16:00,
2013-01-10 08:17:00,73.6,68.1,30.25,ESE,113,0.0,0.0,83,0.00,,,0.00,Wunderground v.1.15,2013-01-10 13:17:00,
2013-01-10 08:19:00,73.8,68.0,30.25,ESE,113,0.0,0.0,82,0.00,,,0.00,Wunderground v.1.15,2013-01-10 13:19:00,
2013-01-10 08:22:00,74.0,68.2,30.25,ESE,113,0.0,0.0,82,0.00,,,0.00,Wunderground v.1.15,2013-01-10 13:22:00,
2013-01-10 08:23:00,74.0,68.2,30.25,ESE,113,0.0,0.0,82,0.00,,,0.00,Wunderground v.1.15,2013-01-10 13:23:00,
2013-01-10 08:24:00,74.2,68.3,30.25,ESE,123,0.0,0.0,82,0.00,,,0.00,Wunderground v.1.15,2013-01-10 13:24:00,
2013-01-10 08:27:00,74.3,68.4,30.25,ESE,123,0.0,0.0,82,0.00,,,0.00,Wunderground v.1.15,2013-01-10 13:27:00,
2013-01-10 08:28:00,74.4,68.5,30.25,ESE,121,0.0,0.0,82,0.00,,,0.00,Wunderground v.1.15,2013-01-10 13:28:00,
2013-01-10 08:29:00,74.5,68.3,30.25,ESE,122,0.0,0.0,81,0.00,,,0.00,Wunderground v.1.15,2013-01-10 13:29:00,
2013-01-10 08:32:00,74.6,68.4,30.25,ESE,111,0.0,0.0,81,0.00,,,0.00,Wunderground v.1.15,2013-01-10 13:32:00,
2013-01-10 08:33:00,74.7,68.1,30.25,ESE,123,0.0,0.0,80,0.00,,,0.00,Wunderground v.1.15,2013-01-10 13:33:00,
2013-01-10 08:35:00,74.8,68.2,30.25,ESE,113,0.0,0.0,80,0.00,,,0.00,Wunderground v.1.15,2013-01-10 13:35:00,
2013-01-10 08:37:00,75.0,68.4,30.26,ESE,113,0.0,0.0,80,0.00,,,0.00,Wunderground v.1.15,2013-01-10 13:37:00,
2013-01-10 08:38:00,75.1,68.1,30.25,ESE,121,4.0,8.0,79,0.00,,,0.00,Wunderground v.1.15,2013-01-10 13:38:00,
2013-01-10 08:40:00,75.2,68.2,30.25,ESE,121,7.0,7.0,79,0.00,,,0.00,Wunderground v.1.15,2013-01-10 13:40:00,
2013-01-10 08:42:00,75.4,68.4,30.26,ESE,117,4.0,7.0,79,0.00,,,0.00,Wunderground v.1.15,2013-01-10 13:42:00,
2013-01-10 08:43:00,75.3,68.3,30.26,ESE,118,5.0,7.0,79,0.00,,,0.00,Wunderground v.1.15,2013-01-10 13:43:00,
2013-01-10 08:44:00,75.5,68.2,30.26,ESE,103,6.0,7.0,78,0.00,,,0.00,Wunderground v.1.15,2013-01-10 13:44:00,
2013-01-10 08:45:00,75.5,68.2,30.25,ESE,109,0.0,7.0,78,0.00,,,0.00,Wunderground v.1.15,2013-01-10 13:45:00,
2013-01-10 08:48:00,75.6,68.3,30.26,ESE,107,8.0,8.0,78,0.00,,,0.00,Wunderground v.1.15,2013-01-10 13:48:00,
2013-01-10 08:49:00,75.6,68.3,30.26,SE,128,7.0,7.0,78,0.00,,,0.00,Wunderground v.1.15,2013-01-10 13:49:00,
2013-01-10 08:50:00,75.7,68.4,30.26,East,94,8.0,12.0,78,0.00,,,0.00,Wunderground v.1.15,2013-01-10 13:50:00,
2013-01-10 08:53:00,75.8,68.1,30.25,SE,138,9.0,12.0,77,0.00,,,0.00,Wunderground v.1.15,2013-01-10 13:53:00,
2013-01-10 08:55:00,75.8,68.1,30.25,ESE,121,7.0,12.0,77,0.00,,,0.00,Wunderground v.1.15,2013-01-10 13:55:00,
2013-01-10 08:56:00,75.9,67.8,30.25,East,95,8.0,12.0,76,0.00,,,0.00,Wunderground v.1.15,2013-01-10 13:56:00,
2013-01-10 08:58:00,76.0,67.9,30.25,ESE,117,8.0,12.0,76,0.00,,,0.00,Wunderground v.1.15,2013-01-10 13:58:00,
2013-01-10 09:00:00,76.1,68.0,30.26,ESE,123,8.0,10.0,76,0.00,,,0.00,Wunderground v.1.15,2013-01-10 14:00:00,
2013-01-10 09:01:00,76.1,68.0,30.26,ESE,123,8.0,10.0,76,0.00,,,0.00,Wunderground v.1.15,2013-01-10 14:01:00,
2013-01-10 09:03:00,76.2,68.1,30.26,SE,137,4.0,10.0,76,0.00,,,0.00,Wunderground v.1.15,2013-01-10 14:03:00,
2013-01-10 09:05:00,76.3,68.2,30.26,SE,140,4.0,10.0,76,0.00,,,0.00,Wunderground v.1.15,2013-01-10 14:05:00,
2013-01-10 09:06:00,76.3,67.8,30.26,SE,142,1.0,10.0,75,0.00,,,0.00,Wunderground v.1.15,2013-01-10 14:06:00,
2013-01-10 09:08:00,76.4,67.9,30.26,East,101,8.0,10.0,75,0.00,,,0.00,Wunderground v.1.15,2013-01-10 14:08:00,
2013-01-10 09:11:00,76.5,68.0,30.26,East,96,5.0,9.0,75,0.00,,,0.00,Wunderground v.1.15,2013-01-10 14:11:00,
2013-01-10 09:13:00,76.5,67.6,30.25,ESE,109,8.0,10.0,74,0.00,,,0.00,Wunderground v.1.15,2013-01-10 14:13:00,
2013-01-10 09:16:00,76.6,68.1,30.26,ESE,104,9.0,10.0,75,0.00,,,0.00,Wunderground v.1.15,2013-01-10 14:16:00,
2013-01-10 09:17:00,76.6,68.1,30.26,East,95,9.0,10.0,75,0.00,,,0.00,Wunderground v.1.15,2013-01-10 14:17:00,
2013-01-10 09:19:00,76.6,67.7,30.26,ESE,115,10.0,10.0,74,0.00,,,0.00,Wunderground v.1.15,2013-01-10 14:19:00,
2013-01-10 09:21:00,76.7,67.8,30.25,East,90,6.0,9.0,74,0.00,,,0.00,Wunderground v.1.15,2013-01-10 14:21:00,
2013-01-10 09:22:00,76.7,67.8,30.25,East,92,2.0,9.0,74,0.00,,,0.00,Wunderground v.1.15,2013-01-10 14:22:00,
2013-01-10 09:24:00,76.8,67.9,30.25,ESE,107,8.0,11.0,74,0.00,,,0.00,Wunderground v.1.15,2013-01-10 14:24:00,
2013-01-10 09:27:00,76.9,68.4,30.26,East,98,2.0,11.0,75,0.00,,,0.00,Wunderground v.1.15,2013-01-10 14:27:00,
2013-01-10 09:28:00,76.9,68.0,30.26,East,90,5.0,11.0,74,0.00,,,0.00,Wunderground v.1.15,2013-01-10 14:28:00,
2013-01-10 09:29:00,77.0,68.1,30.26,SE,136,7.0,7.0,74,0.00,,,0.00,Wunderground v.1.15,2013-01-10 14:29:00,
2013-01-10 09:33:00,77.2,68.3,30.25,ESE,115,4.0,10.0,74,0.00,,,0.00,Wunderground v.1.15,2013-01-10 14:33:00,
2013-01-10 09:34:00,77.2,68.3,30.25,SSE,159,7.0,10.0,74,0.00,,,0.00,Wunderground v.1.15,2013-01-10 14:34:00,
2013-01-10 09:38:00,77.2,67.9,30.25,SE,128,8.0,10.0,73,0.00,,,0.00,Wunderground v.1.15,2013-01-10 14:38:00,
2013-01-10 09:39:00,77.2,67.9,30.25,ESE,106,4.0,10.0,73,0.00,,,0.00,Wunderground v.1.15,2013-01-10 14:39:00,
2013-01-10 09:40:00,77.2,67.9,30.25,SE,134,13.0,13.0,73,0.00,,,0.00,Wunderground v.1.15,2013-01-10 14:40:00,
2013-01-10 09:43:00,77.2,67.5,30.25,ESE,109,9.0,14.0,72,0.00,,,0.00,Wunderground v.1.15,2013-01-10 14:43:00,
2013-01-10 09:44:00,77.2,67.9,30.25,ESE,110,8.0,14.0,73,0.00,,,0.00,Wunderground v.1.15,2013-01-10 14:44:00,
2013-01-10 09:45:00,77.2,67.9,30.25,East,99,7.0,14.0,73,0.00,,,0.00,Wunderground v.1.15,2013-01-10 14:45:00,
2013-01-10 09:48:00,77.1,67.8,30.25,ESE,107,10.0,14.0,73,0.00,,,0.00,Wunderground v.1.15,2013-01-10 14:48:00,
2013-01-10 09:49:00,77.1,67.8,30.25,SE,124,7.0,13.0,73,0.00,,,0.00,Wunderground v.1.15,2013-01-10 14:49:00,
2013-01-10 09:50:00,77.1,67.8,30.25,SE,126,7.0,13.0,73,0.00,,,0.00,Wunderground v.1.15,2013-01-10 14:50:00,
2013-01-10 09:51:00,77.1,67.8,30.25,ESE,109,7.0,13.0,73,0.00,,,0.00,Wunderground v.1.15,2013-01-10 14:51:00,
2013-01-10 09:54:00,77.3,67.2,30.25,East,81,8.0,14.0,71,0.00,,,0.00,Wunderground v.1.15,2013-01-10 14:54:00,
2013-01-10 09:55:00,77.3,67.2,30.25,East,90,13.0,14.0,71,0.00,,,0.00,Wunderground v.1.15,2013-01-10 14:55:00,
2013-01-10 09:56:00,77.3,67.2,30.25,East,88,12.0,14.0,71,0.00,,,0.00,Wunderground v.1.15,2013-01-10 14:56:00,
2013-01-10 09:59:00,77.3,67.6,30.25,SSE,150,8.0,9.0,72,0.00,,,0.00,Wunderground v.1.15,2013-01-10 14:59:00,
2013-01-10 10:01:00,77.3,67.6,30.25,ESE,105,9.0,11.0,72,0.00,,,0.00,Wunderground v.1.15,2013-01-10 15:01:00,
2013-01-10 10:04:00,77.0,67.3,30.25,ESE,103,5.0,11.0,72,0.00,,,0.00,Wunderground v.1.15,2013-01-10 15:04:00,
2013-01-10 10:05:00,76.9,67.6,30.25,East,98,7.0,11.0,73,0.00,,,0.00,Wunderground v.1.15,2013-01-10 15:05:00,
2013-01-10 10:06:00,76.8,67.5,30.25,ESE,110,5.0,11.0,73,0.00,,,0.00,Wunderground v.1.15,2013-01-10 15:06:00,
2013-01-10 10:10:00,76.9,68.0,30.24,ESE,106,12.0,12.0,74,0.00,,,0.00,Wunderground v.1.15,2013-01-10 15:10:00,
2013-01-10 10:11:00,76.9,68.0,30.24,ESE,103,8.0,13.0,74,0.00,,,0.00,Wunderground v.1.15,2013-01-10 15:11:00,
2013-01-10 10:12:00,77.0,68.1,30.24,ESE,103,11.0,13.0,74,0.00,,,0.00,Wunderground v.1.15,2013-01-10 15:12:00,
2013-01-10 10:15:00,77.2,68.3,30.24,SE,130,11.0,14.0,74,0.00,,,0.00,Wunderground v.1.15,2013-01-10 15:15:00,
2013-01-10 10:16:00,77.2,67.9,30.24,ESE,112,13.0,14.0,73,0.00,,,0.00,Wunderground v.1.15,2013-01-10 15:16:00,
2013-01-10 10:17:00,77.2,67.9,30.24,SE,130,10.0,14.0,73,0.00,,,0.00,Wunderground v.1.15,2013-01-10 15:17:00,
2013-01-10 10:18:00,77.1,68.2,30.24,ESE,106,8.0,14.0,74,0.00,,,0.00,Wunderground v.1.15,2013-01-10 15:18:00,
2013-01-10 10:21:00,77.0,67.7,30.24,East,88,8.0,12.0,73,0.00,,,0.00,Wunderground v.1.15,2013-01-10 15:21:00,
2013-01-10 10:22:00,77.0,68.1,30.24,East,98,8.0,18.0,74,0.00,,,0.00,Wunderground v.1.15,2013-01-10 15:22:00,
2013-01-10 10:23:00,77.0,68.1,30.24,ESE,111,6.0,18.0,74,0.00,,,0.00,Wunderground v.1.15,2013-01-10 15:23:00,
2013-01-10 10:26:00,77.1,68.6,30.24,ESE,118,10.0,18.0,75,0.00,,,0.00,Wunderground v.1.15,2013-01-10 15:26:00,
2013-01-10 10:27:00,77.1,68.2,30.24,SE,127,8.0,18.0,74,0.00,,,0.00,Wunderground v.1.15,2013-01-10 15:27:00,
2013-01-10 10:28:00,77.1,68.2,30.24,ESE,107,8.0,18.0,74,0.00,,,0.00,Wunderground v.1.15,2013-01-10 15:28:00,
2013-01-10 10:29:00,77.2,68.7,30.24,ESE,103,8.0,18.0,75,0.00,,,0.00,Wunderground v.1.15,2013-01-10 15:29:00,
2013-01-10 10:32:00,77.4,68.5,30.24,ESE,122,12.0,13.0,74,0.00,,,0.00,Wunderground v.1.15,2013-01-10 15:32:00,
2013-01-10 10:33:00,77.5,68.2,30.24,ESE,117,11.0,13.0,73,0.00,,,0.00,Wunderground v.1.15,2013-01-10 15:33:00,
2013-01-10 10:34:00,77.5,68.2,30.24,SE,132,12.0,13.0,73,0.00,,,0.00,Wunderground v.1.15,2013-01-10 15:34:00,
2013-01-10 10:37:00,77.4,68.5,30.24,SE,140,9.0,13.0,74,0.00,,,0.00,Wunderground v.1.15,2013-01-10 15:37:00,
2013-01-10 10:39:00,77.4,68.5,30.24,ESE,105,7.0,10.0,74,0.00,,,0.00,Wunderground v.1.15,2013-01-10 15:39:00,
2013-01-10 10:43:00,77.3,68.0,30.24,ESE,111,8.0,14.0,73,0.00,,,0.00,Wunderground v.1.15,2013-01-10 15:43:00,
2013-01-10 10:44:00,77.3,68.0,30.23,ESE,106,6.0,14.0,73,0.00,,,0.00,Wunderground v.1.15,2013-01-10 15:44:00,
2013-01-10 10:45:00,77.3,68.0,30.23,ESE,102,12.0,14.0,73,0.00,,,0.00,Wunderground v.1.15,2013-01-10 15:45:00,
2013-01-10 10:48:00,77.3,68.4,30.23,ESE,120,10.0,15.0,74,0.00,,,0.00,Wunderground v.1.15,2013-01-10 15:48:00,
2013-01-10 10:49:00,77.3,68.4,30.23,ESE,111,10.0,13.0,74,0.00,,,0.00,Wunderground v.1.15,2013-01-10 15:49:00,
2013-01-10 10:50:00,77.3,68.8,30.23,SE,131,8.0,13.0,75,0.00,,,0.00,Wunderground v.1.15,2013-01-10 15:50:00,
2013-01-10 10:53:00,77.4,68.5,30.23,ESE,115,9.0,15.0,74,0.00,,,0.00,Wunderground v.1.15,2013-01-10 15:53:00,
2013-01-10 10:54:00,77.4,68.9,30.23,ESE,119,6.0,15.0,75,0.00,,,0.00,Wunderground v.1.15,2013-01-10 15:54:00,
2013-01-10 10:55:00,77.5,68.9,30.23,SE,133,10.0,15.0,75,0.00,,,0.00,Wunderground v.1.15,2013-01-10 15:55:00,
2013-01-10 10:59:00,77.5,68.6,30.23,SE,128,8.0,15.0,74,0.00,,,0.00,Wunderground v.1.15,2013-01-10 15:59:00,
2013-01-10 11:00:00,77.5,68.2,30.23,ESE,119,7.0,15.0,73,0.00,,,0.00,Wunderground v.1.15,2013-01-10 16:00:00,
2013-01-10 11:01:00,77.5,68.2,30.23,ESE,106,10.0,15.0,73,0.00,,,0.00,Wunderground v.1.15,2013-01-10 16:01:00,
2013-01-10 11:04:00,77.2,67.5,30.23,ESE,113,10.0,15.0,72,0.00,,,0.00,Wunderground v.1.15,2013-01-10 16:04:00,
2013-01-10 11:05:00,77.0,67.7,30.23,East,87,7.0,15.0,73,0.00,,,0.00,Wunderground v.1.15,2013-01-10 16:05:00,
2013-01-10 11:06:00,76.9,67.6,30.23,ESE,120,8.0,15.0,73,0.00,,,0.00,Wunderground v.1.15,2013-01-10 16:06:00,
2013-01-10 11:09:00,76.8,67.9,30.22,SE,133,9.0,15.0,74,0.00,,,0.00,Wunderground v.1.15,2013-01-10 16:09:00,
2013-01-10 11:10:00,76.8,67.9,30.22,SE,124,4.0,10.0,74,0.00,,,0.00,Wunderground v.1.15,2013-01-10 16:10:00,
2013-01-10 11:11:00,76.8,67.9,30.22,ESE,106,2.0,10.0,74,0.00,,,0.00,Wunderground v.1.15,2013-01-10 16:11:00,
2013-01-10 11:12:00,76.8,68.3,30.22,ESE,104,7.0,10.0,75,0.00,,,0.00,Wunderground v.1.15,2013-01-10 16:12:00,
2013-01-10 11:14:00,77.0,67.7,30.22,East,92,7.0,15.0,73,0.00,,,0.00,Wunderground v.1.15,2013-01-10 16:14:00,
2013-01-10 11:15:00,77.2,67.9,30.22,ESE,103,12.0,15.0,73,0.00,,,0.00,Wunderground v.1.15,2013-01-10 16:15:00,
2013-01-10 11:16:00,77.5,67.8,30.22,SE,136,7.0,15.0,72,0.00,,,0.00,Wunderground v.1.15,2013-01-10 16:16:00,
2013-01-10 11:17:00,77.5,67.4,30.22,SE,135,10.0,15.0,71,0.00,,,0.00,Wunderground v.1.15,2013-01-10 16:17:00,
2013-01-10 11:19:00,77.5,67.4,30.22,ESE,121,14.0,14.0,71,0.00,,,0.00,Wunderground v.1.15,2013-01-10 16:19:00,
2013-01-10 11:20:00,77.4,66.8,30.22,ESE,123,6.0,14.0,70,0.00,,,0.00,Wunderground v.1.15,2013-01-10 16:20:00,
2013-01-10 11:22:00,77.3,66.7,30.22,ESE,119,8.0,14.0,70,0.00,,,0.00,Wunderground v.1.15,2013-01-10 16:22:00,
2013-01-10 11:24:00,77.1,67.4,30.22,East,95,10.0,14.0,72,0.00,,,0.00,Wunderground v.1.15,2013-01-10 16:24:00,
2013-01-10 11:25:00,77.0,67.7,30.22,East,99,10.0,14.0,73,0.00,,,0.00,Wunderground v.1.15,2013-01-10 16:25:00,
2013-01-10 11:28:00,77.0,67.3,30.22,ESE,121,8.0,14.0,72,0.00,,,0.00,Wunderground v.1.15,2013-01-10 16:28:00,
2013-01-10 11:29:00,77.1,67.4,30.22,ESE,113,9.0,9.0,72,0.00,,,0.00,Wunderground v.1.15,2013-01-10 16:29:00,
2013-01-10 11:30:00,77.2,67.5,30.22,ESE,109,11.0,11.0,72,0.00,,,0.00,Wunderground v.1.15,2013-01-10 16:30:00,
2013-01-10 11:33:00,77.6,67.9,30.21,ESE,103,9.0,13.0,72,0.00,,,0.00,Wunderground v.1.15,2013-01-10 16:33:00,
2013-01-10 11:35:00,77.7,68.4,30.21,SE,138,5.0,14.0,73,0.00,,,0.00,Wunderground v.1.15,2013-01-10 16:35:00,
2013-01-10 11:36:00,77.9,68.5,30.21,East,92,14.0,14.0,73,0.00,,,0.00,Wunderground v.1.15,2013-01-10 16:36:00,
2013-01-10 11:38:00,78.0,67.8,30.21,ESE,119,10.0,14.0,71,0.00,,,0.00,Wunderground v.1.15,2013-01-10 16:38:00,
2013-01-10 11:40:00,78.1,67.9,30.21,ESE,111,7.0,11.0,71,0.00,,,0.00,Wunderground v.1.15,2013-01-10 16:40:00,
2013-01-10 11:41:00,78.1,67.9,30.21,ESE,123,2.0,12.0,71,0.00,,,0.00,Wunderground v.1.15,2013-01-10 16:41:00,
2013-01-10 11:43:00,78.3,67.7,30.21,East,90,5.0,12.0,70,0.00,,,0.00,Wunderground v.1.15,2013-01-10 16:43:00,
2013-01-10 11:46:00,78.5,67.9,30.20,SE,126,6.0,12.0,70,0.00,,,0.00,Wunderground v.1.15,2013-01-10 16:46:00,
2013-01-10 11:49:00,78.6,67.6,30.20,ESE,113,7.0,9.0,69,0.00,,,0.00,Wunderground v.1.15,2013-01-10 16:49:00,
2013-01-10 11:51:00,78.5,67.9,30.20,ESE,115,11.0,14.0,70,0.00,,,0.00,Wunderground v.1.15,2013-01-10 16:51:00,
2013-01-10 11:52:00,78.5,67.9,30.20,East,93,9.0,14.0,70,0.00,,,0.00,Wunderground v.1.15,2013-01-10 16:52:00,
2013-01-10 11:55:00,78.3,67.7,30.19,ESE,113,12.0,15.0,70,0.00,,,0.00,Wunderground v.1.15,2013-01-10 16:55:00,
2013-01-10 11:56:00,78.1,67.9,30.19,ESE,120,9.0,15.0,71,0.00,,,0.00,Wunderground v.1.15,2013-01-10 16:56:00,
2013-01-10 11:57:00,78.1,67.9,30.19,ESE,121,7.0,15.0,71,0.00,,,0.00,Wunderground v.1.15,2013-01-10 16:57:00,
2013-01-10 12:00:00,77.8,67.6,30.19,ESE,108,10.0,15.0,71,0.00,,,0.00,Wunderground v.1.15,2013-01-10 17:00:00,
2013-01-10 12:01:00,77.7,68.0,30.19,ESE,110,8.0,15.0,72,0.00,,,0.00,Wunderground v.1.15,2013-01-10 17:01:00,
2013-01-10 12:03:00,77.7,68.0,30.19,ESE,117,11.0,15.0,72,0.00,,,0.00,Wunderground v.1.15,2013-01-10 17:03:00,
2013-01-10 12:05:00,77.8,67.6,30.19,East,84,12.0,15.0,71,0.00,,,0.00,Wunderground v.1.15,2013-01-10 17:05:00,
2013-01-10 12:06:00,77.8,67.6,30.19,East,84,11.0,15.0,71,0.00,,,0.00,Wunderground v.1.15,2013-01-10 17:06:00,
2013-01-10 12:07:00,77.8,67.6,30.19,ESE,110,10.0,15.0,71,0.00,,,0.00,Wunderground v.1.15,2013-01-10 17:07:00,
2013-01-10 12:08:00,77.6,67.4,30.19,ESE,108,14.0,16.0,71,0.00,,,0.00,Wunderground v.1.15,2013-01-10 17:08:00,
2013-01-10 12:10:00,77.4,66.8,30.18,East,94,13.0,15.0,70,0.00,,,0.00,Wunderground v.1.15,2013-01-10 17:10:00,
2013-01-10 12:12:00,77.3,67.2,30.18,ESE,118,9.0,15.0,71,0.00,,,0.00,Wunderground v.1.15,2013-01-10 17:12:00,
2013-01-10 12:14:00,77.1,67.0,30.18,ESE,115,5.0,15.0,71,0.00,,,0.00,Wunderground v.1.15,2013-01-10 17:14:00,
2013-01-10 12:16:00,77.1,67.4,30.18,ESE,119,12.0,15.0,72,0.00,,,0.00,Wunderground v.1.15,2013-01-10 17:16:00,
2013-01-10 12:17:00,77.1,67.4,30.18,SE,133,8.0,15.0,72,0.00,,,0.00,Wunderground v.1.15,2013-01-10 17:17:00,
2013-01-10 12:20:00,77.4,67.7,30.18,SE,128,9.0,12.0,72,0.00,,,0.00,Wunderground v.1.15,2013-01-10 17:20:00,
2013-01-10 12:21:00,77.5,67.4,30.18,East,90,9.0,12.0,71,0.00,,,0.00,Wunderground v.1.15,2013-01-10 17:21:00,
2013-01-10 12:22:00,77.6,67.9,30.18,SE,131,10.0,12.0,72,0.00,,,0.00,Wunderground v.1.15,2013-01-10 17:22:00,
2013-01-10 12:25:00,77.8,67.6,30.17,ESE,117,14.0,16.0,71,0.00,,,0.00,Wunderground v.1.15,2013-01-10 17:25:00,
2013-01-10 12:26:00,77.8,67.2,30.17,ESE,115,11.0,18.0,70,0.00,,,0.00,Wunderground v.1.15,2013-01-10 17:26:00,
2013-01-10 12:28:00,77.8,67.6,30.17,SSE,152,13.0,18.0,71,0.00,,,0.00,Wunderground v.1.15,2013-01-10 17:28:00,
2013-01-10 12:30:00,77.9,67.3,30.17,SSE,150,9.0,12.0,70,0.00,,,0.00,Wunderground v.1.15,2013-01-10 17:30:00,
2013-01-10 12:32:00,78.0,67.4,30.17,SE,131,10.0,13.0,70,0.00,,,0.00,Wunderground v.1.15,2013-01-10 17:32:00,
2013-01-10 12:33:00,78.1,67.5,30.17,ESE,115,14.0,14.0,70,0.00,,,0.00,Wunderground v.1.15,2013-01-10 17:33:00,
2013-01-10 12:34:00,78.0,67.0,30.17,ESE,123,7.0,16.0,69,0.00,,,0.00,Wunderground v.1.15,2013-01-10 17:34:00,
2013-01-10 12:35:00,78.0,67.4,30.17,ESE,115,13.0,16.0,70,0.00,,,0.00,Wunderground v.1.15,2013-01-10 17:35:00,
2013-01-10 12:37:00,78.0,67.0,30.17,ESE,105,14.0,16.0,69,0.00,,,0.00,Wunderground v.1.15,2013-01-10 17:37:00,
2013-01-10 12:38:00,78.0,67.0,30.17,SE,130,10.0,16.0,69,0.00,,,0.00,Wunderground v.1.15,2013-01-10 17:38:00,
2013-01-10 12:39:00,77.9,67.3,30.17,ESE,103,7.0,10.0,70,0.00,,,0.00,Wunderground v.1.15,2013-01-10 17:39:00,
2013-01-10 12:40:00,77.9,67.3,30.16,ESE,119,9.0,11.0,70,0.00,,,0.00,Wunderground v.1.15,2013-01-10 17:40:00,
2013-01-10 12:43:00,77.9,67.3,30.16,SE,128,12.0,13.0,70,0.00,,,0.00,Wunderground v.1.15,2013-01-10 17:43:00,
2013-01-10 12:44:00,77.9,67.3,30.17,East,100,2.0,14.0,70,0.00,,,0.00,Wunderground v.1.15,2013-01-10 17:44:00,
2013-01-10 12:45:00,77.8,67.6,30.17,East,94,7.0,14.0,71,0.00,,,0.00,Wunderground v.1.15,2013-01-10 17:45:00,
2013-01-10 12:49:00,78.0,67.8,30.16,East,97,14.0,14.0,71,0.00,,,0.00,Wunderground v.1.15,2013-01-10 17:49:00,
2013-01-10 12:52:00,77.9,67.7,30.16,East,79,13.0,15.0,71,0.00,,,0.00,Wunderground v.1.15,2013-01-10 17:52:00,
2013-01-10 12:55:00,77.6,67.4,30.16,ESE,106,8.0,15.0,71,0.00,,,0.00,Wunderground v.1.15,2013-01-10 17:55:00,
2013-01-10 12:56:00,77.5,67.4,30.16,East,96,11.0,15.0,71,0.00,,,0.00,Wunderground v.1.15,2013-01-10 17:56:00,
2013-01-10 12:57:00,77.5,67.8,30.16,ESE,121,9.0,15.0,72,0.00,,,0.00,Wunderground v.1.15,2013-01-10 17:57:00,
2013-01-10 13:00:00,77.6,67.4,30.16,East,100,8.0,11.0,71,0.00,,,0.00,Wunderground v.1.15,2013-01-10 18:00:00,
2013-01-10 13:01:00,77.6,67.4,30.16,ESE,108,5.0,11.0,71,0.00,,,0.00,Wunderground v.1.15,2013-01-10 18:01:00,
2013-01-10 13:03:00,77.8,67.2,30.16,ESE,120,10.0,12.0,70,0.00,,,0.00,Wunderground v.1.15,2013-01-10 18:03:00,
2013-01-10 13:05:00,77.8,66.8,30.16,ESE,111,12.0,13.0,69,0.00,,,0.00,Wunderground v.1.15,2013-01-10 18:05:00,
2013-01-10 13:06:00,77.7,66.3,30.15,East,88,10.0,14.0,68,0.00,,,0.00,Wunderground v.1.15,2013-01-10 18:06:00,
2013-01-10 13:07:00,77.7,66.7,30.15,ESE,105,12.0,14.0,69,0.00,,,0.00,Wunderground v.1.15,2013-01-10 18:07:00,
2013-01-10 13:08:00,77.6,67.0,30.15,East,101,12.0,14.0,70,0.00,,,0.00,Wunderground v.1.15,2013-01-10 18:08:00,
2013-01-10 13:11:00,77.6,66.6,30.15,SSE,150,11.0,15.0,69,0.00,,,0.00,Wunderground v.1.15,2013-01-10 18:11:00,
2013-01-10 13:12:00,77.6,66.6,30.15,East,99,9.0,15.0,69,0.00,,,0.00,Wunderground v.1.15,2013-01-10 18:12:00,
2013-01-10 13:13:00,77.5,66.9,30.15,East,101,11.0,15.0,70,0.00,,,0.00,Wunderground v.1.15,2013-01-10 18:13:00,
2013-01-10 13:16:00,77.6,67.0,30.15,SSE,155,8.0,15.0,70,0.00,,,0.00,Wunderground v.1.15,2013-01-10 18:16:00,
2013-01-10 13:17:00,77.7,67.5,30.15,ESE,105,8.0,15.0,71,0.00,,,0.00,Wunderground v.1.15,2013-01-10 18:17:00,
2013-01-10 13:18:00,77.8,67.6,30.15,SE,136,5.0,15.0,71,0.00,,,0.00,Wunderground v.1.15,2013-01-10 18:18:00,
2013-01-10 13:21:00,77.8,67.6,30.14,East,92,5.0,13.0,71,0.00,,,0.00,Wunderground v.1.15,2013-01-10 18:21:00,
2013-01-10 13:22:00,77.9,67.3,30.15,SE,130,8.0,13.0,70,0.00,,,0.00,Wunderground v.1.15,2013-01-10 18:22:00,
2013-01-10 13:23:00,78.0,67.4,30.15,East,86,6.0,13.0,70,0.00,,,0.00,Wunderground v.1.15,2013-01-10 18:23:00,
2013-01-10 13:24:00,77.9,67.3,30.14,East,98,8.0,13.0,70,0.00,,,0.00,Wunderground v.1.15,2013-01-10 18:24:00,
2013-01-10 13:27:00,77.9,65.6,30.14,East,86,7.0,13.0,66,0.00,,,0.00,Wunderground v.1.15,2013-01-10 18:27:00,
2013-01-10 13:28:00,78.0,66.2,30.14,ESE,115,10.0,13.0,67,0.00,,,0.00,Wunderground v.1.15,2013-01-10 18:28:00,
2013-01-10 13:29:00,78.0,66.6,30.14,East,89,9.0,11.0,68,0.00,,,0.00,Wunderground v.1.15,2013-01-10 18:29:00,
2013-01-10 13:33:00,77.8,66.8,30.14,ESE,105,11.0,14.0,69,0.00,,,0.00,Wunderground v.1.15,2013-01-10 18:33:00,
2013-01-10 13:34:00,77.8,66.8,30.14,ESE,117,11.0,14.0,69,0.00,,,0.00,Wunderground v.1.15,2013-01-10 18:34:00,
2013-01-10 13:39:00,77.7,67.5,30.14,East,92,10.0,18.0,71,0.00,,,0.00,Wunderground v.1.15,2013-01-10 18:39:00,
2013-01-10 13:40:00,77.6,67.4,30.14,East,98,12.0,13.0,71,0.00,,,0.00,Wunderground v.1.15,2013-01-10 18:40:00,
2013-01-10 13:44:00,77.7,67.5,30.14,SE,142,9.0,14.0,71,0.00,,,0.00,Wunderground v.1.15,2013-01-10 18:44:00,
2013-01-10 13:45:00,77.8,67.2,30.14,ESE,121,9.0,14.0,70,0.00,,,0.00,Wunderground v.1.15,2013-01-10 18:45:00,
2013-01-10 13:46:00,77.7,67.1,30.14,ESE,103,7.0,14.0,70,0.00,,,0.00,Wunderground v.1.15,2013-01-10 18:46:00,
2013-01-10 13:49:00,77.7,67.1,30.14,SE,125,10.0,15.0,70,0.00,,,0.00,Wunderground v.1.15,2013-01-10 18:49:00,
2013-01-10 13:51:00,77.6,67.0,30.14,SE,126,11.0,13.0,70,0.00,,,0.00,Wunderground v.1.15,2013-01-10 18:51:00,
2013-01-10 13:54:00,77.6,67.0,30.14,East,94,9.0,14.0,70,0.00,,,0.00,Wunderground v.1.15,2013-01-10 18:54:00,
2013-01-10 13:56:00,77.6,66.6,30.14,SE,126,8.0,14.0,69,0.00,,,0.00,Wunderground v.1.15,2013-01-10 18:56:00,
2013-01-10 13:57:00,77.7,66.7,30.14,SSE,152,6.0,14.0,69,0.00,,,0.00,Wunderground v.1.15,2013-01-10 18:57:00,
2013-01-10 13:59:00,77.7,65.9,30.14,ESE,123,7.0,9.0,67,0.00,,,0.00,Wunderground v.1.15,2013-01-10 18:59:00,
2013-01-10 14:01:00,77.6,65.8,30.14,ESE,117,8.0,12.0,67,0.00,,,0.00,Wunderground v.1.15,2013-01-10 19:01:00,
2013-01-10 14:02:00,77.6,65.8,30.14,East,101,10.0,12.0,67,0.00,,,0.00,Wunderground v.1.15,2013-01-10 19:02:00,
2013-01-10 14:05:00,77.5,65.7,30.14,ESE,112,7.0,16.0,67,0.00,,,0.00,Wunderground v.1.15,2013-01-10 19:05:00,
2013-01-10 14:07:00,77.3,65.9,30.14,ESE,109,10.0,16.0,68,0.00,,,0.00,Wunderground v.1.15,2013-01-10 19:07:00,
2013-01-10 14:10:00,77.3,66.3,30.14,SE,124,6.0,13.0,69,0.00,,,0.00,Wunderground v.1.15,2013-01-10 19:10:00,
2013-01-10 14:11:00,77.3,66.3,30.14,SE,128,6.0,13.0,69,0.00,,,0.00,Wunderground v.1.15,2013-01-10 19:11:00,
2013-01-10 14:12:00,77.3,65.9,30.14,ESE,118,7.0,13.0,68,0.00,,,0.00,Wunderground v.1.15,2013-01-10 19:12:00,
2013-01-10 14:13:00,77.3,65.9,30.14,ESE,117,11.0,13.0,68,0.00,,,0.00,Wunderground v.1.15,2013-01-10 19:13:00,
2013-01-10 14:17:00,77.2,66.2,30.15,ESE,107,9.0,13.0,69,0.00,,,0.00,Wunderground v.1.15,2013-01-10 19:17:00,
2013-01-10 14:18:00,77.1,66.1,30.15,ESE,111,9.0,13.0,69,0.00,,,0.00,Wunderground v.1.15,2013-01-10 19:18:00,
2013-01-10 14:22:00,77.0,66.5,30.15,ESE,109,8.0,12.0,70,0.00,,,0.00,Wunderground v.1.15,2013-01-10 19:22:00,
2013-01-10 14:23:00,77.0,66.5,30.15,ESE,113,10.0,12.0,70,0.00,,,0.00,Wunderground v.1.15,2013-01-10 19:23:00,
2013-01-10 14:27:00,77.4,66.4,30.15,ESE,118,7.0,14.0,69,0.00,,,0.00,Wunderground v.1.15,2013-01-10 19:27:00,
2013-01-10 14:28:00,77.4,66.4,30.15,ESE,113,6.0,14.0,69,0.00,,,0.00,Wunderground v.1.15,2013-01-10 19:28:00,
2013-01-10 14:29:00,77.5,66.9,30.15,East,89,4.0,8.0,70,0.00,,,0.00,Wunderground v.1.15,2013-01-10 19:29:00,
2013-01-10 14:32:00,77.5,66.9,30.15,SE,130,9.0,11.0,70,0.00,,,0.00,Wunderground v.1.15,2013-01-10 19:32:00,
2013-01-10 14:33:00,77.5,66.9,30.15,SE,126,9.0,11.0,70,0.00,,,0.00,Wunderground v.1.15,2013-01-10 19:33:00,
2013-01-10 14:34:00,77.4,66.8,30.15,SE,131,9.0,11.0,70,0.00,,,0.00,Wunderground v.1.15,2013-01-10 19:34:00,
2013-01-10 14:38:00,77.3,67.2,30.15,SE,131,11.0,12.0,71,0.00,,,0.00,Wunderground v.1.15,2013-01-10 19:38:00,
2013-01-10 14:39:00,77.2,67.1,30.15,SE,129,6.0,8.0,71,0.00,,,0.00,Wunderground v.1.15,2013-01-10 19:39:00,
2013-01-10 14:43:00,77.1,67.4,30.15,ESE,110,9.0,12.0,72,0.00,,,0.00,Wunderground v.1.15,2013-01-10 19:43:00,
2013-01-10 14:44:00,77.1,67.8,30.15,ESE,107,5.0,12.0,73,0.00,,,0.00,Wunderground v.1.15,2013-01-10 19:44:00,
2013-01-10 14:48:00,76.9,68.0,30.15,SE,124,8.0,12.0,74,0.00,,,0.00,Wunderground v.1.15,2013-01-10 19:48:00,
2013-01-10 14:49:00,76.9,67.6,30.15,ESE,107,8.0,8.0,73,0.00,,,0.00,Wunderground v.1.15,2013-01-10 19:49:00,
2013-01-10 14:54:00,76.9,68.0,30.16,ESE,104,4.0,14.0,74,0.00,,,0.00,Wunderground v.1.15,2013-01-10 19:54:00,
2013-01-10 14:59:00,76.9,67.6,30.16,SE,134,10.0,10.0,73,0.00,,,0.00,Wunderground v.1.15,2013-01-10 19:59:00,
2013-01-10 15:00:00,77.0,67.7,30.16,ESE,119,9.0,10.0,73,0.00,,,0.00,Wunderground v.1.15,2013-01-10 20:00:00,
2013-01-10 15:04:00,77.0,68.1,30.16,ESE,108,9.0,12.0,74,0.00,,,0.00,Wunderground v.1.15,2013-01-10 20:04:00,
2013-01-10 15:05:00,76.9,68.0,30.16,ESE,110,6.0,12.0,74,0.00,,,0.00,Wunderground v.1.15,2013-01-10 20:05:00,
2013-01-10 15:09:00,76.9,68.4,30.16,ESE,122,5.0,8.0,75,0.00,,,0.00,Wunderground v.1.15,2013-01-10 20:09:00,
2013-01-10 15:10:00,76.9,68.4,30.16,ESE,107,1.0,8.0,75,0.00,,,0.00,Wunderground v.1.15,2013-01-10 20:10:00,
2013-01-10 15:14:00,77.1,68.6,30.17,East,79,6.0,13.0,75,0.00,,,0.00,Wunderground v.1.15,2013-01-10 20:14:00,
2013-01-10 15:15:00,77.1,68.6,30.17,ESE,119,9.0,13.0,75,0.00,,,0.00,Wunderground v.1.15,2013-01-10 20:15:00,
2013-01-10 15:19:00,76.9,68.8,30.17,SE,137,9.0,11.0,76,0.00,,,0.00,Wunderground v.1.15,2013-01-10 20:19:00,
2013-01-10 15:20:00,76.8,68.3,30.17,East,99,1.0,11.0,75,0.00,,,0.00,Wunderground v.1.15,2013-01-10 20:20:00,
2013-01-10 15:21:00,76.8,68.7,30.17,East,96,8.0,11.0,76,0.00,,,0.00,Wunderground v.1.15,2013-01-10 20:21:00,
2013-01-10 15:25:00,76.6,68.1,30.17,ESE,109,8.0,14.0,75,0.00,,,0.00,Wunderground v.1.15,2013-01-10 20:25:00,
2013-01-10 15:26:00,76.6,68.1,30.17,ESE,107,7.0,14.0,75,0.00,,,0.00,Wunderground v.1.15,2013-01-10 20:26:00,
2013-01-10 15:30:00,76.6,68.5,30.17,East,98,4.0,8.0,76,0.00,,,0.00,Wunderground v.1.15,2013-01-10 20:30:00,
2013-01-10 15:31:00,76.6,68.5,30.17,ESE,109,7.0,8.0,76,0.00,,,0.00,Wunderground v.1.15,2013-01-10 20:31:00,
2013-01-10 15:36:00,76.6,68.5,30.17,ESE,109,7.0,13.0,76,0.00,,,0.00,Wunderground v.1.15,2013-01-10 20:36:00,
2013-01-10 15:41:00,76.7,68.6,30.18,East,100,5.0,8.0,76,0.00,,,0.00,Wunderground v.1.15,2013-01-10 20:41:00,
2013-01-10 15:46:00,76.7,68.6,30.18,ESE,105,10.0,11.0,76,0.00,,,0.00,Wunderground v.1.15,2013-01-10 20:46:00,
2013-01-10 15:47:00,76.7,68.6,30.18,ESE,108,9.0,11.0,76,0.00,,,0.00,Wunderground v.1.15,2013-01-10 20:47:00,
2013-01-10 15:51:00,76.6,68.5,30.18,East,101,9.0,10.0,76,0.00,,,0.00,Wunderground v.1.15,2013-01-10 20:51:00,
2013-01-10 15:52:00,76.5,68.4,30.18,East,101,6.0,10.0,76,0.00,,,0.00,Wunderground v.1.15,2013-01-10 20:52:00,
2013-01-10 15:57:00,76.5,68.7,30.18,East,98,4.0,10.0,77,0.00,,,0.00,Wunderground v.1.15,2013-01-10 20:57:00,
2013-01-10 15:58:00,76.5,68.7,30.18,ESE,115,9.0,11.0,77,0.00,,,0.00,Wunderground v.1.15,2013-01-10 20:58:00,
2013-01-10 16:02:00,76.5,68.7,30.18,East,97,5.0,11.0,77,0.00,,,0.00,Wunderground v.1.15,2013-01-10 21:02:00,
2013-01-10 16:03:00,76.4,68.7,30.19,ESE,104,5.0,11.0,77,0.00,,,0.00,Wunderground v.1.15,2013-01-10 21:03:00,
2013-01-10 16:07:00,76.4,68.7,30.19,East,89,6.0,11.0,77,0.00,,,0.00,Wunderground v.1.15,2013-01-10 21:07:00,
2013-01-10 16:08:00,76.4,68.7,30.19,East,88,6.0,11.0,77,0.00,,,0.00,Wunderground v.1.15,2013-01-10 21:08:00,
2013-01-10 16:12:00,76.4,68.7,30.19,ESE,103,1.0,9.0,77,0.00,,,0.00,Wunderground v.1.15,2013-01-10 21:12:00,
2013-01-10 16:13:00,76.5,68.7,30.19,ESE,109,2.0,9.0,77,0.00,,,0.00,Wunderground v.1.15,2013-01-10 21:13:00,
2013-01-10 16:14:00,76.5,68.7,30.19,ESE,109,3.0,9.0,77,0.00,,,0.00,Wunderground v.1.15,2013-01-10 21:14:00,
2013-01-10 16:18:00,76.6,68.8,30.19,ESE,107,5.0,9.0,77,0.00,,,0.00,Wunderground v.1.15,2013-01-10 21:18:00,
2013-01-10 16:19:00,76.6,68.8,30.20,ESE,119,8.0,9.0,77,0.00,,,0.00,Wunderground v.1.15,2013-01-10 21:19:00,
2013-01-10 16:23:00,76.7,68.9,30.20,ESE,108,5.0,9.0,77,0.00,,,0.00,Wunderground v.1.15,2013-01-10 21:23:00,
2013-01-10 16:24:00,76.7,68.9,30.20,East,100,6.0,9.0,77,0.00,,,0.00,Wunderground v.1.15,2013-01-10 21:24:00,
2013-01-10 16:28:00,76.4,68.7,30.20,East,94,4.0,9.0,77,0.00,,,0.00,Wunderground v.1.15,2013-01-10 21:28:00,
2013-01-10 16:29:00,76.3,68.9,30.20,East,94,0.0,5.0,78,0.00,,,0.00,Wunderground v.1.15,2013-01-10 21:29:00,
2013-01-10 16:30:00,76.3,68.9,30.20,East,94,0.0,5.0,78,0.00,,,0.00,Wunderground v.1.15,2013-01-10 21:30:00,
2013-01-10 16:34:00,76.1,68.7,30.20,ESE,103,2.0,8.0,78,0.00,,,0.00,Wunderground v.1.15,2013-01-10 21:34:00,
2013-01-10 16:36:00,76.1,68.7,30.20,East,94,9.0,9.0,78,0.00,,,0.00,Wunderground v.1.15,2013-01-10 21:36:00,
2013-01-10 16:39:00,76.2,68.8,30.20,East,90,0.0,3.0,78,0.00,,,0.00,Wunderground v.1.15,2013-01-10 21:39:00,
2013-01-10 16:40:00,76.2,68.8,30.20,East,90,2.0,3.0,78,0.00,,,0.00,Wunderground v.1.15,2013-01-10 21:40:00,
2013-01-10 16:41:00,76.4,69.0,30.20,East,98,0.0,3.0,78,0.00,,,0.00,Wunderground v.1.15,2013-01-10 21:41:00,
2013-01-10 16:45:00,76.5,68.7,30.20,ESE,106,6.0,8.0,77,0.00,,,0.00,Wunderground v.1.15,2013-01-10 21:45:00,
2013-01-10 16:47:00,76.5,69.1,30.20,East,95,8.0,8.0,78,0.00,,,0.00,Wunderground v.1.15,2013-01-10 21:47:00,
2013-01-10 16:50:00,76.4,68.7,30.20,East,99,3.0,7.0,77,0.00,,,0.00,Wunderground v.1.15,2013-01-10 21:50:00,
2013-01-10 16:52:00,76.4,68.7,30.20,ESE,113,6.0,8.0,77,0.00,,,0.00,Wunderground v.1.15,2013-01-10 21:52:00,
2013-01-10 16:55:00,76.2,68.8,30.20,ESE,110,5.0,8.0,78,0.00,,,0.00,Wunderground v.1.15,2013-01-10 21:55:00,
2013-01-10 16:56:00,76.2,68.8,30.20,ESE,110,2.0,8.0,78,0.00,,,0.00,Wunderground v.1.15,2013-01-10 21:56:00,
2013-01-10 16:57:00,76.2,69.2,30.20,ESE,110,4.0,8.0,79,0.00,,,0.00,Wunderground v.1.15,2013-01-10 21:57:00,
2013-01-10 17:00:00,76.0,69.0,30.20,ESE,111,1.0,6.0,79,0.00,,,0.00,Wunderground v.1.15,2013-01-10 22:00:00,
2013-01-10 17:01:00,76.0,69.0,30.20,ESE,109,0.0,6.0,79,0.00,,,0.00,Wunderground v.1.15,2013-01-10 22:01:00,
2013-01-10 17:02:00,75.9,68.9,30.20,ESE,107,0.0,6.0,79,0.00,,,0.00,Wunderground v.1.15,2013-01-10 22:02:00,
2013-01-10 17:05:00,75.8,68.8,30.20,East,98,5.0,8.0,79,0.00,,,0.00,Wunderground v.1.15,2013-01-10 22:05:00,
2013-01-10 17:06:00,75.8,68.8,30.20,ESE,105,2.0,8.0,79,0.00,,,0.00,Wunderground v.1.15,2013-01-10 22:06:00,
2013-01-10 17:08:00,75.8,68.8,30.20,East,101,6.0,8.0,79,0.00,,,0.00,Wunderground v.1.15,2013-01-10 22:08:00,
2013-01-10 17:10:00,75.8,69.2,30.20,ESE,111,5.0,6.0,80,0.00,,,0.00,Wunderground v.1.15,2013-01-10 22:10:00,
2013-01-10 17:11:00,75.8,68.8,30.20,ESE,105,0.0,8.0,79,0.00,,,0.00,Wunderground v.1.15,2013-01-10 22:11:00,
2013-01-10 17:13:00,75.8,68.8,30.20,ESE,106,4.0,8.0,79,0.00,,,0.00,Wunderground v.1.15,2013-01-10 22:13:00,
2013-01-10 17:16:00,75.8,68.8,30.20,ESE,105,1.0,8.0,79,0.00,,,0.00,Wunderground v.1.15,2013-01-10 22:16:00,
2013-01-10 17:17:00,75.8,68.8,30.20,ESE,107,6.0,8.0,79,0.00,,,0.00,Wunderground v.1.15,2013-01-10 22:17:00,
2013-01-10 17:18:00,75.8,68.8,30.20,ESE,106,2.0,8.0,79,0.00,,,0.00,Wunderground v.1.15,2013-01-10 22:18:00,
2013-01-10 17:21:00,75.8,69.2,30.20,East,92,3.0,7.0,80,0.00,,,0.00,Wunderground v.1.15,2013-01-10 22:21:00,
2013-01-10 17:22:00,75.8,69.2,30.20,East,101,0.0,7.0,80,0.00,,,0.00,Wunderground v.1.15,2013-01-10 22:22:00,
2013-01-10 17:23:00,75.8,69.2,30.20,East,100,0.0,7.0,80,0.00,,,0.00,Wunderground v.1.15,2013-01-10 22:23:00,
2013-01-10 17:26:00,75.7,69.1,30.21,East,98,5.0,7.0,80,0.00,,,0.00,Wunderground v.1.15,2013-01-10 22:26:00,
2013-01-10 17:28:00,75.6,69.0,30.20,ESE,103,6.0,7.0,80,0.00,,,0.00,Wunderground v.1.15,2013-01-10 22:28:00,
2013-01-10 17:29:00,75.6,69.0,30.20,ESE,103,5.0,5.0,80,0.00,,,0.00,Wunderground v.1.15,2013-01-10 22:29:00,
2013-01-10 17:31:00,75.5,68.9,30.20,ESE,103,1.0,7.0,80,0.00,,,0.00,Wunderground v.1.15,2013-01-10 22:31:00,
2013-01-10 17:33:00,75.4,68.8,30.20,ESE,103,0.0,7.0,80,0.00,,,0.00,Wunderground v.1.15,2013-01-10 22:33:00,
2013-01-10 17:34:00,75.4,68.8,30.20,ESE,103,2.0,7.0,80,0.00,,,0.00,Wunderground v.1.15,2013-01-10 22:34:00,
2013-01-10 17:37:00,75.3,69.1,30.21,East,92,5.0,7.0,81,0.00,,,0.00,Wunderground v.1.15,2013-01-10 22:37:00,
2013-01-10 17:38:00,75.2,68.6,30.20,East,94,4.0,8.0,80,0.00,,,0.00,Wunderground v.1.15,2013-01-10 22:38:00,
2013-01-10 17:39:00,75.2,68.6,30.20,ESE,107,3.0,3.0,80,0.00,,,0.00,Wunderground v.1.15,2013-01-10 22:39:00,
2013-01-10 17:42:00,75.2,69.0,30.20,East,101,1.0,7.0,81,0.00,,,0.00,Wunderground v.1.15,2013-01-10 22:42:00,
2013-01-10 17:44:00,75.1,68.9,30.20,East,97,5.0,7.0,81,0.00,,,0.00,Wunderground v.1.15,2013-01-10 22:44:00,
2013-01-10 17:47:00,75.0,68.8,30.20,East,99,1.0,7.0,81,0.00,,,0.00,Wunderground v.1.15,2013-01-10 22:47:00,
2013-01-10 17:49:00,74.9,68.7,30.20,East,98,4.0,4.0,81,0.00,,,0.00,Wunderground v.1.15,2013-01-10 22:49:00,
2013-01-10 17:52:00,74.7,68.5,30.21,East,99,0.0,4.0,81,0.00,,,0.00,Wunderground v.1.15,2013-01-10 22:52:00,
2013-01-10 17:54:00,74.7,68.8,30.21,East,99,0.0,4.0,82,0.00,,,0.00,Wunderground v.1.15,2013-01-10 22:54:00,
2013-01-10 17:58:00,74.5,68.6,30.21,East,99,0.0,4.0,82,0.00,,,0.00,Wunderground v.1.15,2013-01-10 22:58:00,
2013-01-10 17:59:00,74.4,68.5,30.21,East,99,0.0,0.0,82,0.00,,,0.00,Wunderground v.1.15,2013-01-10 22:59:00,
2013-01-10 18:00:00,74.4,68.5,30.21,East,99,0.0,0.0,82,0.00,,,0.00,Wunderground v.1.15,2013-01-10 23:00:00,
2013-01-10 18:03:00,74.2,68.3,30.21,East,99,0.0,1.0,82,0.00,,,0.00,Wunderground v.1.15,2013-01-10 23:03:00,
2013-01-10 18:04:00,74.2,68.3,30.21,East,99,0.0,1.0,82,0.00,,,0.00,Wunderground v.1.15,2013-01-10 23:04:00,
2013-01-10 18:05:00,74.2,68.3,30.21,East,99,0.0,1.0,82,0.00,,,0.00,Wunderground v.1.15,2013-01-10 23:05:00,
2013-01-10 18:08:00,74.1,68.6,30.21,East,99,0.0,1.0,83,0.00,,,0.00,Wunderground v.1.15,2013-01-10 23:08:00,
2013-01-10 18:09:00,74.1,68.6,30.21,East,99,0.0,0.0,83,0.00,,,0.00,Wunderground v.1.15,2013-01-10 23:09:00,
2013-01-10 18:10:00,74.0,68.5,30.21,East,99,0.0,0.0,83,0.00,,,0.00,Wunderground v.1.15,2013-01-10 23:10:00,
2013-01-10 18:13:00,73.9,68.4,30.21,East,99,0.0,0.0,83,0.00,,,0.00,Wunderground v.1.15,2013-01-10 23:13:00,
2013-01-10 18:14:00,73.9,68.4,30.21,East,99,0.0,0.0,83,0.00,,,0.00,Wunderground v.1.15,2013-01-10 23:14:00,
2013-01-10 18:15:00,73.9,68.4,30.21,East,99,0.0,0.0,83,0.00,,,0.00,Wunderground v.1.15,2013-01-10 23:15:00,
2013-01-10 18:19:00,73.8,68.7,30.22,East,99,0.0,0.0,84,0.00,,,0.00,Wunderground v.1.15,2013-01-10 23:19:00,
2013-01-10 18:21:00,73.7,68.6,30.22,East,99,0.0,0.0,84,0.00,,,0.00,Wunderground v.1.15,2013-01-10 23:21:00,
2013-01-10 18:24:00,73.6,68.5,30.22,East,99,0.0,1.0,84,0.00,,,0.00,Wunderground v.1.15,2013-01-10 23:24:00,
2013-01-10 18:27:00,73.5,68.4,30.22,East,99,0.0,1.0,84,0.00,,,0.00,Wunderground v.1.15,2013-01-10 23:27:00,
2013-01-10 18:29:00,73.5,68.4,30.22,East,99,0.0,0.0,84,0.00,,,0.00,Wunderground v.1.15,2013-01-10 23:29:00,
2013-01-10 18:30:00,73.5,68.4,30.22,East,99,0.0,0.0,84,0.00,,,0.00,Wunderground v.1.15,2013-01-10 23:30:00,
2013-01-10 18:32:00,73.5,68.4,30.22,East,99,0.0,0.0,84,0.00,,,0.00,Wunderground v.1.15,2013-01-10 23:32:00,
2013-01-10 18:34:00,73.5,68.4,30.21,East,99,0.0,0.0,84,0.00,,,0.00,Wunderground v.1.15,2013-01-10 23:34:00,
2013-01-10 18:35:00,73.5,68.4,30.21,East,99,0.0,0.0,84,0.00,,,0.00,Wunderground v.1.15,2013-01-10 23:35:00,
2013-01-10 18:37:00,73.5,68.4,30.22,East,99,0.0,0.0,84,0.00,,,0.00,Wunderground v.1.15,2013-01-10 23:37:00,
2013-01-10 18:40:00,73.4,68.6,30.22,East,99,0.0,0.0,85,0.00,,,0.00,Wunderground v.1.15,2013-01-10 23:40:00,
2013-01-10 18:42:00,73.4,68.6,30.22,East,99,0.0,0.0,85,0.00,,,0.00,Wunderground v.1.15,2013-01-10 23:42:00,
2013-01-10 18:45:00,73.4,68.6,30.22,East,99,0.0,0.0,85,0.00,,,0.00,Wunderground v.1.15,2013-01-10 23:45:00,
2013-01-10 18:48:00,73.4,68.6,30.22,East,99,0.0,0.0,85,0.00,,,0.00,Wunderground v.1.15,2013-01-10 23:48:00,
2013-01-10 18:50:00,73.4,68.6,30.22,East,99,0.0,0.0,85,0.00,,,0.00,Wunderground v.1.15,2013-01-10 23:50:00,
2013-01-10 18:52:00,73.4,68.6,30.22,East,99,0.0,0.0,85,0.00,,,0.00,Wunderground v.1.15,2013-01-10 23:52:00,
2013-01-10 18:53:00,73.3,68.5,30.22,East,99,0.0,0.0,85,0.00,,,0.00,Wunderground v.1.15,2013-01-10 23:53:00,
2013-01-10 18:55:00,73.3,68.5,30.22,East,99,0.0,0.0,85,0.00,,,0.00,Wunderground v.1.15,2013-01-10 23:55:00,
2013-01-10 18:58:00,73.3,68.9,30.22,East,99,0.0,0.0,86,0.00,,,0.00,Wunderground v.1.15,2013-01-10 23:58:00,
2013-01-10 19:01:00,73.3,68.9,30.22,East,99,0.0,0.0,86,0.00,,,0.00,Wunderground v.1.15,2013-01-11 00:01:00,
2013-01-10 19:04:00,73.3,68.9,30.22,East,99,0.0,0.0,86,0.00,,,0.00,Wunderground v.1.15,2013-01-11 00:04:00,
2013-01-10 19:06:00,73.1,68.7,30.22,East,99,0.0,0.0,86,0.00,,,0.00,Wunderground v.1.15,2013-01-11 00:06:00,
2013-01-10 19:07:00,73.1,68.7,30.22,East,99,0.0,0.0,86,0.00,,,0.00,Wunderground v.1.15,2013-01-11 00:07:00,
2013-01-10 19:09:00,73.1,68.7,30.22,East,99,0.0,0.0,86,0.00,,,0.00,Wunderground v.1.15,2013-01-11 00:09:00,
2013-01-10 19:11:00,73.0,68.2,30.21,East,99,0.0,0.0,85,0.00,,,0.00,Wunderground v.1.15,2013-01-11 00:11:00,
2013-01-10 19:12:00,73.0,68.6,30.21,East,99,0.0,0.0,86,0.00,,,0.00,Wunderground v.1.15,2013-01-11 00:12:00,
2013-01-10 19:14:00,73.0,68.6,30.21,East,99,0.0,0.0,86,0.00,,,0.00,Wunderground v.1.15,2013-01-11 00:14:00,
2013-01-10 19:16:00,73.0,68.6,30.21,East,99,0.0,0.0,86,0.00,,,0.00,Wunderground v.1.15,2013-01-11 00:16:00,
2013-01-10 19:17:00,73.0,68.6,30.21,East,99,0.0,0.0,86,0.00,,,0.00,Wunderground v.1.15,2013-01-11 00:17:00,
2013-01-10 19:19:00,73.0,68.6,30.21,East,99,0.0,0.0,86,0.00,,,0.00,Wunderground v.1.15,2013-01-11 00:19:00,
2013-01-10 19:21:00,72.9,68.5,30.21,East,99,0.0,0.0,86,0.00,,,0.00,Wunderground v.1.15,2013-01-11 00:21:00,
2013-01-10 19:23:00,72.9,68.5,30.22,East,99,0.0,0.0,86,0.00,,,0.00,Wunderground v.1.15,2013-01-11 00:23:00,
2013-01-10 19:24:00,72.8,68.4,30.21,East,99,0.0,0.0,86,0.00,,,0.00,Wunderground v.1.15,2013-01-11 00:24:00,
2013-01-10 19:26:00,72.8,68.4,30.21,East,99,0.0,0.0,86,0.00,,,0.00,Wunderground v.1.15,2013-01-11 00:26:00,
2013-01-10 19:28:00,72.8,68.4,30.22,East,99,0.0,0.0,86,0.00,,,0.00,Wunderground v.1.15,2013-01-11 00:28:00,
2013-01-10 19:29:00,72.8,68.0,30.21,East,99,0.0,0.0,85,0.00,,,0.00,Wunderground v.1.15,2013-01-11 00:29:00,
2013-01-10 19:32:00,72.7,67.9,30.21,East,99,0.0,0.0,85,0.00,,,0.00,Wunderground v.1.15,2013-01-11 00:32:00,
2013-01-10 19:33:00,72.8,68.0,30.21,East,99,0.0,0.0,85,0.00,,,0.00,Wunderground v.1.15,2013-01-11 00:33:00,
2013-01-10 19:34:00,72.8,68.0,30.21,East,99,0.0,0.0,85,0.00,,,0.00,Wunderground v.1.15,2013-01-11 00:34:00,
2013-01-10 19:38:00,72.8,68.4,30.21,East,99,0.0,0.0,86,0.00,,,0.00,Wunderground v.1.15,2013-01-11 00:38:00,
2013-01-10 19:40:00,72.8,68.4,30.21,East,99,0.0,0.0,86,0.00,,,0.00,Wunderground v.1.15,2013-01-11 00:40:00,
2013-01-10 19:43:00,72.9,68.5,30.21,East,99,0.0,0.0,86,0.00,,,0.00,Wunderground v.1.15,2013-01-11 00:43:00,
2013-01-10 19:44:00,72.9,68.5,30.21,East,99,0.0,0.0,86,0.00,,,0.00,Wunderground v.1.15,2013-01-11 00:44:00,
2013-01-10 19:45:00,72.9,68.5,30.21,East,99,0.0,0.0,86,0.00,,,0.00,Wunderground v.1.15,2013-01-11 00:45:00,
2013-01-10 19:49:00,72.8,68.4,30.22,East,99,0.0,0.0,86,0.00,,,0.00,Wunderground v.1.15,2013-01-11 00:49:00,
2013-01-10 19:50:00,72.8,68.0,30.21,East,99,0.0,0.0,85,0.00,,,0.00,Wunderground v.1.15,2013-01-11 00:50:00,
2013-01-10 19:54:00,72.7,67.9,30.22,East,98,0.0,0.0,85,0.00,,,0.00,Wunderground v.1.15,2013-01-11 00:54:00,
2013-01-10 19:55:00,72.7,67.9,30.21,East,98,0.0,0.0,85,0.00,,,0.00,Wunderground v.1.15,2013-01-11 00:55:00,
2013-01-10 20:00:00,72.7,67.9,30.21,East,98,0.0,0.0,85,0.00,,,0.00,Wunderground v.1.15,2013-01-11 01:00:00,
2013-01-10 20:01:00,72.7,67.9,30.21,East,98,0.0,0.0,85,0.00,,,0.00,Wunderground v.1.15,2013-01-11 01:01:00,
2013-01-10 20:05:00,72.8,68.0,30.21,East,99,0.0,0.0,85,0.00,,,0.00,Wunderground v.1.15,2013-01-11 01:05:00,
2013-01-10 20:06:00,72.9,68.1,30.21,East,99,0.0,0.0,85,0.00,,,0.00,Wunderground v.1.15,2013-01-11 01:06:00,
2013-01-10 20:10:00,73.0,68.2,30.21,East,99,0.0,0.0,85,0.00,,,0.00,Wunderground v.1.15,2013-01-11 01:10:00,
2013-01-10 20:11:00,73.0,68.2,30.21,East,99,0.0,0.0,85,0.00,,,0.00,Wunderground v.1.15,2013-01-11 01:11:00,
2013-01-10 20:15:00,73.0,67.9,30.21,East,99,0.0,0.0,84,0.00,,,0.00,Wunderground v.1.15,2013-01-11 01:15:00,
2013-01-10 20:17:00,73.0,67.9,30.21,East,99,0.0,0.0,84,0.00,,,0.00,Wunderground v.1.15,2013-01-11 01:17:00,
2013-01-10 20:21:00,73.0,67.9,30.21,East,99,0.0,0.0,84,0.00,,,0.00,Wunderground v.1.15,2013-01-11 01:21:00,
2013-01-10 20:22:00,73.1,68.0,30.21,East,99,0.0,0.0,84,0.00,,,0.00,Wunderground v.1.15,2013-01-11 01:22:00,
2013-01-10 20:23:00,73.0,67.9,30.21,East,99,0.0,0.0,84,0.00,,,0.00,Wunderground v.1.15,2013-01-11 01:23:00,
2013-01-10 20:26:00,73.0,67.9,30.21,East,99,0.0,0.0,84,0.00,,,0.00,Wunderground v.1.15,2013-01-11 01:26:00,
2013-01-10 20:27:00,73.0,67.9,30.21,East,99,0.0,0.0,84,0.00,,,0.00,Wunderground v.1.15,2013-01-11 01:27:00,
2013-01-10 20:28:00,73.0,67.9,30.21,East,99,0.0,0.0,84,0.00,,,0.00,Wunderground v.1.15,2013-01-11 01:28:00,
2013-01-10 20:31:00,73.1,68.0,30.21,East,99,0.0,0.0,84,0.00,,,0.00,Wunderground v.1.15,2013-01-11 01:31:00,
2013-01-10 20:33:00,73.1,68.0,30.21,East,99,0.0,0.0,84,0.00,,,0.00,Wunderground v.1.15,2013-01-11 01:33:00,
2013-01-10 20:35:00,73.1,68.0,30.21,East,99,0.0,0.0,84,0.00,,,0.00,Wunderground v.1.15,2013-01-11 01:35:00,
2013-01-10 20:36:00,73.1,68.0,30.21,East,99,0.0,0.0,84,0.00,,,0.00,Wunderground v.1.15,2013-01-11 01:36:00,
2013-01-10 20:38:00,73.1,68.0,30.21,East,98,0.0,0.0,84,0.00,,,0.00,Wunderground v.1.15,2013-01-11 01:38:00,
2013-01-10 20:40:00,73.2,68.1,30.21,ESE,103,0.0,0.0,84,0.00,,,0.00,Wunderground v.1.15,2013-01-11 01:40:00,
2013-01-10 20:41:00,73.2,68.1,30.21,ESE,108,0.0,0.0,84,0.00,,,0.00,Wunderground v.1.15,2013-01-11 01:41:00,
2013-01-10 20:43:00,73.2,68.1,30.21,ESE,106,0.0,0.0,84,0.00,,,0.00,Wunderground v.1.15,2013-01-11 01:43:00,
2013-01-10 20:45:00,73.3,68.2,30.21,ESE,106,0.0,0.0,84,0.00,,,0.00,Wunderground v.1.15,2013-01-11 01:45:00,
2013-01-10 20:46:00,73.3,68.2,30.21,ESE,106,0.0,0.0,84,0.00,,,0.00,Wunderground v.1.15,2013-01-11 01:46:00,
2013-01-10 20:48:00,73.3,67.8,30.21,ESE,106,0.0,0.0,83,0.00,,,0.00,Wunderground v.1.15,2013-01-11 01:48:00,
2013-01-10 20:50:00,73.3,67.8,30.21,ESE,106,0.0,0.0,83,0.00,,,0.00,Wunderground v.1.15,2013-01-11 01:50:00,
2013-01-10 20:52:00,73.3,67.8,30.21,ESE,106,0.0,0.0,83,0.00,,,0.00,Wunderground v.1.15,2013-01-11 01:52:00,
2013-01-10 20:54:00,73.3,68.2,30.21,ESE,106,0.0,0.0,84,0.00,,,0.00,Wunderground v.1.15,2013-01-11 01:54:00,
2013-01-10 20:56:00,73.3,67.8,30.21,ESE,106,0.0,0.0,83,0.00,,,0.00,Wunderground v.1.15,2013-01-11 01:56:00,
2013-01-10 20:57:00,73.3,67.8,30.21,ESE,106,0.0,0.0,83,0.00,,,0.00,Wunderground v.1.15,2013-01-11 01:57:00,
2013-01-10 20:59:00,73.3,67.8,30.21,ESE,106,0.0,0.0,83,0.00,,,0.00,Wunderground v.1.15,2013-01-11 01:59:00,
2013-01-10 21:01:00,73.2,67.7,30.21,ESE,106,0.0,0.0,83,0.00,,,0.00,Wunderground v.1.15,2013-01-11 02:01:00,
2013-01-10 21:03:00,73.3,67.8,30.22,ESE,106,0.0,0.0,83,0.00,,,0.00,Wunderground v.1.15,2013-01-11 02:03:00,
2013-01-10 21:04:00,73.3,67.8,30.21,ESE,106,0.0,0.0,83,0.00,,,0.00,Wunderground v.1.15,2013-01-11 02:04:00,
2013-01-10 21:06:00,73.2,67.7,30.21,East,89,0.0,0.0,83,0.00,,,0.00,Wunderground v.1.15,2013-01-11 02:06:00,
2013-01-10 21:08:00,73.3,67.8,30.22,East,90,0.0,0.0,83,0.00,,,0.00,Wunderground v.1.15,2013-01-11 02:08:00,
2013-01-10 21:09:00,73.3,67.8,30.22,East,90,0.0,0.0,83,0.00,,,0.00,Wunderground v.1.15,2013-01-11 02:09:00,
2013-01-10 21:12:00,73.4,67.9,30.22,East,90,0.0,0.0,83,0.00,,,0.00,Wunderground v.1.15,2013-01-11 02:12:00,
2013-01-10 21:13:00,73.4,67.9,30.22,East,91,0.0,0.0,83,0.00,,,0.00,Wunderground v.1.15,2013-01-11 02:13:00,
2013-01-10 21:14:00,73.4,67.9,30.22,East,92,0.0,0.0,83,0.00,,,0.00,Wunderground v.1.15,2013-01-11 02:14:00,
2013-01-10 21:17:00,73.4,67.9,30.22,East,93,0.0,0.0,83,0.00,,,0.00,Wunderground v.1.15,2013-01-11 02:17:00,
2013-01-10 21:19:00,73.4,67.9,30.21,East,93,0.0,0.0,83,0.00,,,0.00,Wunderground v.1.15,2013-01-11 02:19:00,
2013-01-10 21:20:00,73.4,67.9,30.21,East,93,0.0,0.0,83,0.00,,,0.00,Wunderground v.1.15,2013-01-11 02:20:00,
2013-01-10 21:23:00,73.4,67.9,30.22,ESE,105,0.0,0.0,83,0.00,,,0.00,Wunderground v.1.15,2013-01-11 02:23:00,
2013-01-10 21:24:00,73.3,67.8,30.21,ESE,105,0.0,0.0,83,0.00,,,0.00,Wunderground v.1.15,2013-01-11 02:24:00,
2013-01-10 21:25:00,73.3,67.8,30.21,East,101,0.0,0.0,83,0.00,,,0.00,Wunderground v.1.15,2013-01-11 02:25:00,
2013-01-10 21:28:00,73.4,67.9,30.21,ESE,103,0.0,0.0,83,0.00,,,0.00,Wunderground v.1.15,2013-01-11 02:28:00,
2013-01-10 21:29:00,73.4,67.9,30.21,ESE,102,0.0,0.0,83,0.00,,,0.00,Wunderground v.1.15,2013-01-11 02:29:00,
2013-01-10 21:30:00,73.5,68.0,30.21,ESE,103,0.0,0.0,83,0.00,,,0.00,Wunderground v.1.15,2013-01-11 02:30:00,
2013-01-10 21:33:00,73.5,68.0,30.21,ESE,103,0.0,0.0,83,0.00,,,0.00,Wunderground v.1.15,2013-01-11 02:33:00,
2013-01-10 21:34:00,73.6,68.1,30.22,ESE,103,0.0,0.0,83,0.00,,,0.00,Wunderground v.1.15,2013-01-11 02:34:00,
2013-01-10 21:35:00,73.6,68.1,30.22,ESE,103,0.0,0.0,83,0.00,,,0.00,Wunderground v.1.15,2013-01-11 02:35:00,
2013-01-10 21:38:00,73.7,68.2,30.22,East,101,0.0,0.0,83,0.00,,,0.00,Wunderground v.1.15,2013-01-11 02:38:00,
2013-01-10 21:39:00,73.7,68.2,30.22,ESE,107,0.0,0.0,83,0.00,,,0.00,Wunderground v.1.15,2013-01-11 02:39:00,
2013-01-10 21:41:00,73.7,68.2,30.22,ESE,109,0.0,0.0,83,0.00,,,0.00,Wunderground v.1.15,2013-01-11 02:41:00,
2013-01-10 21:43:00,73.8,68.3,30.22,ESE,107,0.0,0.0,83,0.00,,,0.00,Wunderground v.1.15,2013-01-11 02:43:00,
2013-01-10 21:45:00,73.8,68.3,30.22,ESE,108,0.0,0.0,83,0.00,,,0.00,Wunderground v.1.15,2013-01-11 02:45:00,
2013-01-10 21:47:00,73.8,68.3,30.22,ESE,107,0.0,0.0,83,0.00,,,0.00,Wunderground v.1.15,2013-01-11 02:47:00,
2013-01-10 21:49:00,73.9,68.4,30.21,ESE,111,0.0,0.0,83,0.00,,,0.00,Wunderground v.1.15,2013-01-11 02:49:00,
2013-01-10 21:51:00,73.9,68.1,30.22,ESE,106,0.0,0.0,82,0.00,,,0.00,Wunderground v.1.15,2013-01-11 02:51:00,
2013-01-10 21:52:00,73.9,68.1,30.22,ESE,106,0.0,0.0,82,0.00,,,0.00,Wunderground v.1.15,2013-01-11 02:52:00,
2013-01-10 21:54:00,73.9,68.1,30.22,ESE,107,0.0,0.0,82,0.00,,,0.00,Wunderground v.1.15,2013-01-11 02:54:00,
2013-01-10 21:56:00,73.9,68.1,30.22,ESE,106,0.0,0.0,82,0.00,,,0.00,Wunderground v.1.15,2013-01-11 02:56:00,
2013-01-10 21:58:00,73.9,68.4,30.23,ESE,107,0.0,0.0,83,0.00,,,0.00,Wunderground v.1.15,2013-01-11 02:58:00,
2013-01-10 21:59:00,73.9,68.1,30.22,ESE,108,0.0,0.0,82,0.00,,,0.00,Wunderground v.1.15,2013-01-11 02:59:00,
2013-01-10 22:01:00,73.9,68.1,30.22,ESE,108,0.0,0.0,82,0.00,,,0.00,Wunderground v.1.15,2013-01-11 03:01:00,
2013-01-10 22:03:00,73.9,68.1,30.22,ESE,108,0.0,0.0,82,0.00,,,0.00,Wunderground v.1.15,2013-01-11 03:03:00,
2013-01-10 22:05:00,73.8,68.3,30.22,ESE,108,0.0,0.0,83,0.00,,,0.00,Wunderground v.1.15,2013-01-11 03:05:00,
2013-01-10 22:06:00,73.8,68.3,30.22,ESE,108,0.0,0.0,83,0.00,,,0.00,Wunderground v.1.15,2013-01-11 03:06:00,
2013-01-10 22:08:00,73.7,67.9,30.22,ESE,107,0.0,0.0,82,0.00,,,0.00,Wunderground v.1.15,2013-01-11 03:08:00,
2013-01-10 22:10:00,73.7,67.9,30.22,ESE,111,0.0,0.0,82,0.00,,,0.00,Wunderground v.1.15,2013-01-11 03:10:00,
2013-01-10 22:12:00,73.7,67.9,30.22,ESE,109,0.0,0.0,82,0.00,,,0.00,Wunderground v.1.15,2013-01-11 03:12:00,
2013-01-10 22:14:00,73.7,67.9,30.23,ESE,109,0.0,0.0,82,0.00,,,0.00,Wunderground v.1.15,2013-01-11 03:14:00,
2013-01-10 22:15:00,73.6,67.8,30.23,ESE,109,0.0,0.0,82,0.00,,,0.00,Wunderground v.1.15,2013-01-11 03:15:00,
2013-01-10 22:17:00,73.6,68.1,30.23,ESE,109,0.0,0.0,83,0.00,,,0.00,Wunderground v.1.15,2013-01-11 03:17:00,
2013-01-10 22:19:00,73.6,68.1,30.23,ESE,109,0.0,0.0,83,0.00,,,0.00,Wunderground v.1.15,2013-01-11 03:19:00,
2013-01-10 22:21:00,73.6,68.1,30.23,ESE,109,0.0,0.0,83,0.00,,,0.00,Wunderground v.1.15,2013-01-11 03:21:00,
2013-01-10 22:22:00,73.5,67.7,30.23,ESE,109,0.0,0.0,82,0.00,,,0.00,Wunderground v.1.15,2013-01-11 03:22:00,
2013-01-10 22:24:00,73.5,67.7,30.23,ESE,109,0.0,0.0,82,0.00,,,0.00,Wunderground v.1.15,2013-01-11 03:24:00,
2013-01-10 22:26:00,73.5,68.0,30.23,ESE,109,0.0,0.0,83,0.00,,,0.00,Wunderground v.1.15,2013-01-11 03:26:00,
2013-01-10 22:27:00,73.4,67.6,30.23,ESE,109,0.0,0.0,82,0.00,,,0.00,Wunderground v.1.15,2013-01-11 03:27:00,
2013-01-10 22:29:00,73.4,67.9,30.23,ESE,109,0.0,0.0,83,0.00,,,0.00,Wunderground v.1.15,2013-01-11 03:29:00,
2013-01-10 22:31:00,73.4,67.9,30.23,ESE,109,0.0,0.0,83,0.00,,,0.00,Wunderground v.1.15,2013-01-11 03:31:00,
2013-01-10 22:32:00,73.3,67.5,30.22,ESE,109,0.0,0.0,82,0.00,,,0.00,Wunderground v.1.15,2013-01-11 03:32:00,
2013-01-10 22:35:00,73.3,67.8,30.22,ESE,109,0.0,0.0,83,0.00,,,0.00,Wunderground v.1.15,2013-01-11 03:35:00,
2013-01-10 22:36:00,73.3,67.8,30.22,ESE,109,0.0,0.0,83,0.00,,,0.00,Wunderground v.1.15,2013-01-11 03:36:00,
2013-01-10 22:37:00,73.3,67.8,30.22,ESE,109,0.0,0.0,83,0.00,,,0.00,Wunderground v.1.15,2013-01-11 03:37:00,
2013-01-10 22:40:00,73.3,67.8,30.22,ESE,109,0.0,0.0,83,0.00,,,0.00,Wunderground v.1.15,2013-01-11 03:40:00,
2013-01-10 22:42:00,73.3,67.8,30.22,ESE,109,0.0,0.0,83,0.00,,,0.00,Wunderground v.1.15,2013-01-11 03:42:00,
2013-01-10 22:43:00,73.3,67.8,30.22,ESE,109,0.0,0.0,83,0.00,,,0.00,Wunderground v.1.15,2013-01-11 03:43:00,
2013-01-10 22:46:00,73.3,67.5,30.23,ESE,109,0.0,0.0,82,0.00,,,0.00,Wunderground v.1.15,2013-01-11 03:46:00,
2013-01-10 22:47:00,73.3,67.5,30.23,ESE,109,0.0,0.0,82,0.00,,,0.00,Wunderground v.1.15,2013-01-11 03:47:00,
2013-01-10 22:48:00,73.4,67.6,30.23,ESE,109,0.0,0.0,82,0.00,,,0.00,Wunderground v.1.15,2013-01-11 03:48:00,
2013-01-10 22:51:00,73.4,67.6,30.23,ESE,109,0.0,0.0,82,0.00,,,0.00,Wunderground v.1.15,2013-01-11 03:51:00,
2013-01-10 22:52:00,73.4,67.6,30.23,ESE,109,0.0,0.0,82,0.00,,,0.00,Wunderground v.1.15,2013-01-11 03:52:00,
2013-01-10 22:53:00,73.4,67.6,30.23,ESE,109,0.0,0.0,82,0.00,,,0.00,Wunderground v.1.15,2013-01-11 03:53:00,
2013-01-10 22:56:00,73.5,67.3,30.23,ESE,109,0.0,0.0,81,0.00,,,0.00,Wunderground v.1.15,2013-01-11 03:56:00,
2013-01-10 22:57:00,73.4,67.2,30.23,ESE,109,0.0,0.0,81,0.00,,,0.00,Wunderground v.1.15,2013-01-11 03:57:00,
2013-01-10 22:58:00,73.4,67.6,30.23,ESE,109,0.0,0.0,82,0.00,,,0.00,Wunderground v.1.15,2013-01-11 03:58:00,
2013-01-10 23:01:00,73.3,67.5,30.23,ESE,109,0.0,0.0,82,0.00,,,0.00,Wunderground v.1.15,2013-01-11 04:01:00,
2013-01-10 23:02:00,73.2,67.4,30.23,ESE,109,0.0,0.0,82,0.00,,,0.00,Wunderground v.1.15,2013-01-11 04:02:00,
2013-01-10 23:03:00,73.2,67.4,30.22,ESE,109,0.0,0.0,82,0.00,,,0.00,Wunderground v.1.15,2013-01-11 04:03:00,
2013-01-10 23:07:00,73.3,67.8,30.22,ESE,109,0.0,0.0,83,0.00,,,0.00,Wunderground v.1.15,2013-01-11 04:07:00,
2013-01-10 23:09:00,73.3,67.8,30.22,ESE,109,0.0,0.0,83,0.00,,,0.00,Wunderground v.1.15,2013-01-11 04:09:00,
2013-01-10 23:12:00,73.3,67.8,30.22,ESE,114,0.0,0.0,83,0.00,,,0.00,Wunderground v.1.15,2013-01-11 04:12:00,
2013-01-10 23:13:00,73.3,67.8,30.23,ESE,114,0.0,0.0,83,0.00,,,0.00,Wunderground v.1.15,2013-01-11 04:13:00,
2013-01-10 23:14:00,73.3,67.8,30.23,ESE,114,0.0,0.0,83,0.00,,,0.00,Wunderground v.1.15,2013-01-11 04:14:00,
2013-01-10 23:17:00,73.2,67.7,30.23,ESE,114,0.0,0.0,83,0.00,,,0.00,Wunderground v.1.15,2013-01-11 04:17:00,
2013-01-10 23:18:00,73.2,67.7,30.22,ESE,114,0.0,0.0,83,0.00,,,0.00,Wunderground v.1.15,2013-01-11 04:18:00,
2013-01-10 23:20:00,73.2,67.7,30.22,ESE,114,0.0,0.0,83,0.00,,,0.00,Wunderground v.1.15,2013-01-11 04:20:00,
2013-01-10 23:22:00,73.1,68.0,30.22,ESE,114,0.0,0.0,84,0.00,,,0.00,Wunderground v.1.15,2013-01-11 04:22:00,
2013-01-10 23:23:00,73.1,68.0,30.22,ESE,114,0.0,0.0,84,0.00,,,0.00,Wunderground v.1.15,2013-01-11 04:23:00,
2013-01-10 23:26:00,73.0,67.9,30.22,ESE,114,0.0,0.0,84,0.00,,,0.00,Wunderground v.1.15,2013-01-11 04:26:00,
2013-01-10 23:27:00,73.1,68.0,30.22,ESE,113,0.0,0.0,84,0.00,,,0.00,Wunderground v.1.15,2013-01-11 04:27:00,
2013-01-10 23:29:00,73.1,68.3,30.22,ESE,110,0.0,0.0,85,0.00,,,0.00,Wunderground v.1.15,2013-01-11 04:29:00,
2013-01-10 23:31:00,73.2,68.4,30.22,ESE,110,0.0,0.0,85,0.00,,,0.00,Wunderground v.1.15,2013-01-11 04:31:00,
2013-01-10 23:33:00,73.3,68.5,30.22,ESE,110,0.0,0.0,85,0.00,,,0.00,Wunderground v.1.15,2013-01-11 04:33:00,
2013-01-10 23:34:00,73.3,68.2,30.22,ESE,110,0.0,0.0,84,0.00,,,0.00,Wunderground v.1.15,2013-01-11 04:34:00,
2013-01-10 23:36:00,73.3,68.2,30.22,ESE,108,0.0,0.0,84,0.00,,,0.00,Wunderground v.1.15,2013-01-11 04:36:00,
2013-01-10 23:38:00,73.4,68.3,30.22,ESE,110,0.0,0.0,84,0.00,,,0.00,Wunderground v.1.15,2013-01-11 04:38:00,
2013-01-10 23:40:00,73.5,68.4,30.22,East,94,0.0,0.0,84,0.00,,,0.00,Wunderground v.1.15,2013-01-11 04:40:00,
2013-01-10 23:41:00,73.5,68.4,30.22,ESE,113,0.0,0.0,84,0.00,,,0.00,Wunderground v.1.15,2013-01-11 04:41:00,
2013-01-10 23:43:00,73.6,68.5,30.22,ESE,113,0.0,0.0,84,0.00,,,0.00,Wunderground v.1.15,2013-01-11 04:43:00,
2013-01-10 23:45:00,73.7,68.6,30.22,ESE,103,0.0,0.0,84,0.00,,,0.00,Wunderground v.1.15,2013-01-11 04:45:00,
2013-01-10 23:47:00,73.8,68.7,30.22,ESE,107,0.0,0.0,84,0.00,,,0.00,Wunderground v.1.15,2013-01-11 04:47:00,
2013-01-10 23:48:00,73.9,68.8,30.22,ESE,121,0.0,0.0,84,0.00,,,0.00,Wunderground v.1.15,2013-01-11 04:48:00,
2013-01-10 23:51:00,73.9,68.8,30.22,East,100,0.0,0.0,84,0.00,,,0.00,Wunderground v.1.15,2013-01-11 04:51:00,
2013-01-10 23:52:00,73.9,68.8,30.22,ESE,121,0.0,0.0,84,0.00,,,0.00,Wunderground v.1.15,2013-01-11 04:52:00,
2013-01-10 23:54:00,74.0,68.9,30.22,East,101,0.0,0.0,84,0.00,,,0.00,Wunderground v.1.15,2013-01-11 04:54:00,
2013-01-10 23:56:00,74.0,68.9,30.22,East,101,0.0,0.0,84,0.00,,,0.00,Wunderground v.1.15,2013-01-11 04:56:00,
2013-01-10 23:58:00,74.0,68.9,30.22,ESE,105,0.0,0.0,84,0.00,,,0.00,Wunderground v.1.15,2013-01-11 04:58:00,